IKS7011 EDDF-SAWH

Flight info

Callsign IKS7011
Flight time N/A
Altitude 27000
Route ANEKI Y163 HERBI Y164 OLBEN/N0496F280 DCT ONNOF/N0493F290 DCT BELUS/N0491F300 DCT LSE/N0497F270 UY305 ESIDA DCT GAI DCT PERDU/N0497F280 DCT KONKE/N0495F290 Z245 CJN N10 VTB/N0500F270 N10 SVL N857 KORNO UN857 TOVRA/N0500F290 UN857 TERTO N857 DEREV/N0500F300 N857 GUNET UN857 TEKSO/N0503F320 UN857 MEDIT/N0497F340 UN857 LOGIP/N0485F360 UN857 NELOX UM424 TOLEP UM661 CRR UM792 MDP UW32 SIGUL UT662 SALVU/N0481F380 UT662 ASKAS UT704 DABLI DABL1Q
Aircraft B77L/H-SDE1E2E3FGHIJ2J3J4J5M1RWXYZ/LB1D1

Departure

Time N/A
Airport Frankfurt Main Airport (EDDF)

Arrival

Time 2026-05-06 18:07
Airport Ushuaia - Malvinas Argentinas International Airport (SAWH)
Time Latitude Longitude Altitude Speed Heading
2026-05-06 04:42 33.41079 -9.76932 30761 ft 465 kts 219°
2026-05-06 04:43 33.38530 -9.79311 30927 ft 466 kts 219°
2026-05-06 04:43 33.33405 -9.84086 30992 ft 466 kts 219°
2026-05-06 04:44 33.28341 -9.88800 30998 ft 462 kts 219°
2026-05-06 04:44 33.23269 -9.93512 30997 ft 460 kts 219°
2026-05-06 04:45 33.18208 -9.98207 31003 ft 459 kts 219°
2026-05-06 04:45 33.13194 -10.02856 30999 ft 459 kts 219°
2026-05-06 04:46 33.08143 -10.07528 31005 ft 459 kts 219°
2026-05-06 04:46 33.03082 -10.12205 31003 ft 460 kts 219°
2026-05-06 04:47 32.98045 -10.16846 30997 ft 460 kts 219°
2026-05-06 04:47 32.92974 -10.21508 31005 ft 460 kts 219°
2026-05-06 04:48 32.87893 -10.26169 31000 ft 460 kts 219°
2026-05-06 04:48 32.82844 -10.30792 31001 ft 460 kts 219°
2026-05-06 04:49 32.77780 -10.35433 31001 ft 459 kts 219°
2026-05-06 04:49 32.72710 -10.40076 30995 ft 459 kts 219°
2026-05-06 04:50 32.67649 -10.44687 30999 ft 457 kts 219°
2026-05-06 04:50 32.62637 -10.49254 30998 ft 456 kts 219°
2026-05-06 04:51 32.57595 -10.53838 31003 ft 456 kts 219°
2026-05-06 04:51 32.52571 -10.58412 30998 ft 455 kts 219°
2026-05-06 04:52 32.47578 -10.62937 30998 ft 455 kts 219°
2026-05-06 04:52 32.42523 -10.67524 31001 ft 455 kts 219°
2026-05-06 04:53 32.37518 -10.72059 31004 ft 456 kts 219°
2026-05-06 04:53 32.32462 -10.76626 31005 ft 458 kts 219°
2026-05-06 04:54 32.27412 -10.81185 30999 ft 459 kts 219°
2026-05-06 04:54 32.22322 -10.85764 31000 ft 459 kts 219°
2026-05-06 04:55 32.17232 -10.90345 30997 ft 460 kts 219°
2026-05-06 04:55 32.12128 -10.94925 30993 ft 460 kts 219°
2026-05-06 04:56 32.07068 -10.99473 30998 ft 460 kts 219°
2026-05-06 04:56 32.01942 -11.04063 30995 ft 459 kts 219°
2026-05-06 04:57 31.96879 -11.08592 31008 ft 459 kts 219°
2026-05-06 04:57 31.91785 -11.13143 30999 ft 459 kts 219°
2026-05-06 04:58 31.86722 -11.17658 30998 ft 458 kts 219°
2026-05-06 04:58 31.81633 -11.22192 30997 ft 458 kts 219°
2026-05-06 04:59 31.76550 -11.26717 31003 ft 459 kts 219°
2026-05-06 04:59 31.71459 -11.31247 30996 ft 459 kts 219°
2026-05-06 05:00 31.66392 -11.35764 31002 ft 459 kts 219°
2026-05-06 05:00 31.61301 -11.40298 30996 ft 460 kts 219°
2026-05-06 05:01 31.56191 -11.44841 30997 ft 460 kts 219°
2026-05-06 05:01 31.51084 -11.49375 31003 ft 461 kts 219°
2026-05-06 05:02 31.46000 -11.53881 30994 ft 461 kts 219°
2026-05-06 05:02 31.40879 -11.58415 30990 ft 461 kts 219°
2026-05-06 05:03 31.35755 -11.62942 30990 ft 460 kts 219°
2026-05-06 05:03 31.30644 -11.67452 30991 ft 460 kts 219°
2026-05-06 05:04 31.25530 -11.71960 30990 ft 460 kts 219°
2026-05-06 05:04 31.20442 -11.76439 30991 ft 460 kts 219°
2026-05-06 05:05 31.15320 -11.80943 30991 ft 459 kts 219°
2026-05-06 05:05 31.10217 -11.85423 30990 ft 458 kts 219°
2026-05-06 05:06 31.05155 -11.89860 30992 ft 457 kts 219°
2026-05-06 05:06 31.00074 -11.94308 30991 ft 456 kts 219°
2026-05-06 05:07 30.95845 -11.98004 30992 ft 455 kts 219°
2026-05-06 05:07 30.90770 -12.02436 30988 ft 455 kts 218°
2026-05-06 05:08 30.85700 -12.06853 30993 ft 454 kts 218°
2026-05-06 05:08 30.80669 -12.11240 30991 ft 454 kts 218°
2026-05-06 05:09 30.75597 -12.15653 30992 ft 454 kts 218°
2026-05-06 05:09 30.70565 -12.20023 30991 ft 454 kts 218°
2026-05-06 05:10 30.65501 -12.24416 30991 ft 453 kts 218°
2026-05-06 05:10 30.60443 -12.28798 30990 ft 453 kts 218°
2026-05-06 05:11 30.55387 -12.33174 30991 ft 452 kts 218°
2026-05-06 05:11 30.50375 -12.37504 30990 ft 451 kts 218°
2026-05-06 05:12 30.45336 -12.41841 30990 ft 451 kts 218°
2026-05-06 05:12 30.40287 -12.46173 30990 ft 450 kts 218°
2026-05-06 05:13 30.35280 -12.50468 30990 ft 450 kts 218°
2026-05-06 05:13 30.30247 -12.54781 30997 ft 450 kts 218°
2026-05-06 05:14 30.25201 -12.59099 30996 ft 450 kts 218°
2026-05-06 05:14 30.20156 -12.63413 30998 ft 450 kts 218°
2026-05-06 05:15 30.15133 -12.67701 30998 ft 451 kts 218°
2026-05-06 05:15 30.10081 -12.72006 31004 ft 451 kts 218°
2026-05-06 05:16 30.05063 -12.76290 30997 ft 451 kts 218°
2026-05-06 05:16 30.00011 -12.80607 31003 ft 451 kts 218°
2026-05-06 05:17 29.94957 -12.84920 31006 ft 451 kts 218°
2026-05-06 05:17 29.89913 -12.89216 30989 ft 450 kts 218°
2026-05-06 05:18 29.84880 -12.93500 30989 ft 449 kts 218°
2026-05-06 05:18 29.79893 -12.97738 30991 ft 448 kts 218°
2026-05-06 05:19 29.74879 -13.01992 30990 ft 447 kts 218°
2026-05-06 05:19 29.69867 -13.06241 30992 ft 447 kts 218°
2026-05-06 05:20 29.64873 -13.10468 30992 ft 447 kts 218°
2026-05-06 05:20 29.59851 -13.14713 30991 ft 448 kts 218°
2026-05-06 05:21 29.54825 -13.18959 30991 ft 448 kts 218°
2026-05-06 05:21 29.49823 -13.23178 30990 ft 448 kts 218°
2026-05-06 05:22 29.44782 -13.27423 30991 ft 448 kts 218°
2026-05-06 05:22 29.39740 -13.31665 30991 ft 449 kts 218°
2026-05-06 05:23 29.34733 -13.35874 30991 ft 449 kts 218°
2026-05-06 05:23 29.27161 -13.42226 30991 ft 449 kts 218°
2026-05-06 05:24 29.22113 -13.46456 30988 ft 449 kts 218°
2026-05-06 05:24 29.17092 -13.50652 30990 ft 449 kts 217°
2026-05-06 05:25 29.11817 -13.54525 30984 ft 451 kts 214°
2026-05-06 05:25 29.06483 -13.58305 30993 ft 451 kts 214°
2026-05-06 05:26 29.01185 -13.62070 30986 ft 450 kts 214°
2026-05-06 05:26 28.95870 -13.65853 30997 ft 450 kts 214°
2026-05-06 05:27 28.90551 -13.69638 30988 ft 451 kts 214°
2026-05-06 05:27 28.85222 -13.73424 30991 ft 450 kts 214°
2026-05-06 05:28 28.79886 -13.77213 30999 ft 450 kts 214°
2026-05-06 05:28 28.74593 -13.80967 30990 ft 450 kts 214°
2026-05-06 05:29 28.69269 -13.84740 30989 ft 450 kts 214°
2026-05-06 05:29 28.63938 -13.88503 30995 ft 450 kts 214°
2026-05-06 05:30 28.58638 -13.92245 30989 ft 451 kts 214°
2026-05-06 05:30 28.53302 -13.96011 30993 ft 451 kts 214°
2026-05-06 05:31 28.47955 -13.99778 30991 ft 452 kts 214°
2026-05-06 05:31 28.42603 -14.03544 30991 ft 452 kts 214°
2026-05-06 05:32 28.37254 -14.07305 30992 ft 452 kts 214°
2026-05-06 05:32 28.31929 -14.11044 30988 ft 452 kts 214°
2026-05-06 05:33 28.26572 -14.14798 30992 ft 452 kts 214°
2026-05-06 05:33 28.21215 -14.18550 30993 ft 452 kts 214°
2026-05-06 05:34 28.15882 -14.22278 30987 ft 452 kts 214°
2026-05-06 05:34 28.10524 -14.26025 30990 ft 452 kts 214°
2026-05-06 05:35 28.05172 -14.29761 30991 ft 451 kts 214°
2026-05-06 05:35 27.99823 -14.33489 30989 ft 451 kts 214°
2026-05-06 05:36 27.94474 -14.37213 30991 ft 451 kts 214°
2026-05-06 05:36 27.89161 -14.40907 30991 ft 451 kts 214°
2026-05-06 05:37 27.83816 -14.44618 30992 ft 451 kts 214°
2026-05-06 05:37 27.78464 -14.48331 30980 ft 451 kts 214°
2026-05-06 05:38 27.73111 -14.52042 30982 ft 452 kts 214°
2026-05-06 05:38 27.67747 -14.55756 30982 ft 452 kts 214°
2026-05-06 05:39 27.62371 -14.59472 30983 ft 452 kts 214°
2026-05-06 05:39 27.56991 -14.63185 30981 ft 452 kts 214°
2026-05-06 05:40 27.51656 -14.66867 30981 ft 453 kts 214°
2026-05-06 05:40 27.46268 -14.70579 30982 ft 453 kts 214°
2026-05-06 05:41 27.40878 -14.74288 30981 ft 453 kts 214°
2026-05-06 05:41 27.35529 -14.77967 30982 ft 453 kts 214°
2026-05-06 05:42 27.30127 -14.81674 30981 ft 453 kts 213°
2026-05-06 05:42 27.24740 -14.85367 30982 ft 453 kts 213°
2026-05-06 05:43 27.19370 -14.89046 30981 ft 454 kts 213°
2026-05-06 05:43 27.13978 -14.92735 30984 ft 454 kts 213°
2026-05-06 05:44 27.08580 -14.96427 30990 ft 454 kts 213°
2026-05-06 05:44 27.03184 -15.00108 30990 ft 454 kts 213°
2026-05-06 05:45 26.97771 -15.03799 30981 ft 455 kts 213°
2026-05-06 05:45 26.92380 -15.07470 30978 ft 455 kts 213°
2026-05-06 05:46 26.86965 -15.11156 30971 ft 456 kts 213°
2026-05-06 05:46 26.81538 -15.14843 30973 ft 456 kts 213°
2026-05-06 05:47 26.76148 -15.18506 30972 ft 456 kts 213°
2026-05-06 05:47 26.70710 -15.22193 30973 ft 456 kts 213°
2026-05-06 05:48 26.65271 -15.25872 30973 ft 457 kts 213°
2026-05-06 05:48 26.59864 -15.29527 30971 ft 457 kts 213°
2026-05-06 05:49 26.54416 -15.33205 30972 ft 456 kts 213°
2026-05-06 05:49 26.48972 -15.36883 30972 ft 456 kts 213°
2026-05-06 05:50 26.43542 -15.40545 30979 ft 456 kts 213°
2026-05-06 05:50 26.38148 -15.44175 30982 ft 456 kts 213°
2026-05-06 05:51 26.32712 -15.47833 30981 ft 456 kts 213°
2026-05-06 05:51 26.27265 -15.51493 30982 ft 456 kts 213°
2026-05-06 05:52 26.21819 -15.55148 30983 ft 457 kts 213°
2026-05-06 05:52 26.16393 -15.58789 30981 ft 457 kts 213°
2026-05-06 05:53 26.11857 -15.61826 30982 ft 457 kts 213°
2026-05-06 05:53 26.05514 -15.66067 30982 ft 458 kts 213°
2026-05-06 05:54 26.00964 -15.69109 30981 ft 458 kts 213°
2026-05-06 05:54 25.95498 -15.72758 30978 ft 458 kts 213°
2026-05-06 05:55 25.90034 -15.76402 30971 ft 458 kts 213°
2026-05-06 05:55 25.84566 -15.80043 30973 ft 458 kts 213°
2026-05-06 05:56 25.79112 -15.83675 30972 ft 458 kts 213°
2026-05-06 05:56 25.73636 -15.87315 30972 ft 458 kts 213°
2026-05-06 05:57 25.68199 -15.90927 30974 ft 458 kts 213°
2026-05-06 05:57 25.62718 -15.94564 30971 ft 458 kts 213°
2026-05-06 05:58 25.57239 -15.98190 30971 ft 458 kts 213°
2026-05-06 05:58 25.51789 -16.01797 30963 ft 458 kts 213°
2026-05-06 05:59 25.46315 -16.05416 30962 ft 458 kts 213°
2026-05-06 05:59 25.40825 -16.09042 30964 ft 459 kts 213°
2026-05-06 06:00 25.35336 -16.12664 30963 ft 459 kts 213°
2026-05-06 06:00 25.29881 -16.16260 30963 ft 459 kts 213°
2026-05-06 06:01 25.24385 -16.19879 30962 ft 459 kts 213°
2026-05-06 06:01 25.18887 -16.23493 30964 ft 459 kts 213°
2026-05-06 06:02 25.13412 -16.27090 30955 ft 460 kts 213°
2026-05-06 06:02 25.07898 -16.30710 30954 ft 461 kts 212°
2026-05-06 06:03 25.02372 -16.34334 30954 ft 461 kts 212°
2026-05-06 06:03 24.96876 -16.37934 30953 ft 462 kts 212°
2026-05-06 06:04 24.91340 -16.41551 30954 ft 462 kts 212°
2026-05-06 06:04 24.85798 -16.45170 30955 ft 463 kts 212°
2026-05-06 06:05 24.80246 -16.48795 30952 ft 463 kts 212°
2026-05-06 06:05 24.74700 -16.52408 30955 ft 463 kts 212°
2026-05-06 06:06 24.69152 -16.56020 30952 ft 463 kts 212°
2026-05-06 06:06 24.63626 -16.59614 30953 ft 463 kts 212°
2026-05-06 06:07 24.58070 -16.63226 30954 ft 463 kts 212°
2026-05-06 06:07 24.52507 -16.66838 30954 ft 463 kts 212°
2026-05-06 06:08 24.46958 -16.70439 30954 ft 463 kts 212°
2026-05-06 06:08 24.41431 -16.74017 30943 ft 463 kts 212°
2026-05-06 06:09 24.35874 -16.77614 30949 ft 463 kts 212°
2026-05-06 06:09 24.30315 -16.81207 30946 ft 463 kts 212°
2026-05-06 06:10 24.24788 -16.84778 30939 ft 464 kts 212°
2026-05-06 06:10 24.19216 -16.88373 30947 ft 464 kts 212°
2026-05-06 06:11 24.13654 -16.91957 30948 ft 464 kts 212°
2026-05-06 06:11 24.08078 -16.95547 30943 ft 464 kts 212°
2026-05-06 06:12 24.02543 -16.99107 30946 ft 464 kts 212°
2026-05-06 06:12 23.96970 -17.02729 30941 ft 465 kts 212°
2026-05-06 06:13 23.91373 -17.06243 30926 ft 465 kts 211°
2026-05-06 06:13 23.85782 -17.09801 30943 ft 465 kts 212°
2026-05-06 06:14 23.80250 -17.13390 30950 ft 465 kts 212°
2026-05-06 06:14 23.74662 -17.16977 30920 ft 466 kts 212°
2026-05-06 06:15 23.69079 -17.20553 30940 ft 465 kts 212°
2026-05-06 06:15 23.63484 -17.24132 30947 ft 464 kts 212°
2026-05-06 06:16 23.57944 -17.27667 30947 ft 463 kts 212°
2026-05-06 06:16 23.52375 -17.31219 30948 ft 463 kts 212°
2026-05-06 06:17 23.46807 -17.34764 30947 ft 462 kts 212°
2026-05-06 06:17 23.41279 -17.38281 30944 ft 463 kts 212°
2026-05-06 06:18 23.35709 -17.41820 30946 ft 463 kts 212°
2026-05-06 06:18 23.30128 -17.45365 30937 ft 464 kts 212°
2026-05-06 06:19 23.24578 -17.48884 30948 ft 464 kts 212°
2026-05-06 06:19 23.18984 -17.52429 30948 ft 465 kts 212°
2026-05-06 06:20 23.13383 -17.55973 30944 ft 465 kts 212°
2026-05-06 06:20 23.07816 -17.59494 30943 ft 465 kts 212°
2026-05-06 06:21 23.02221 -17.63029 30948 ft 465 kts 212°
2026-05-06 06:21 22.96610 -17.66574 30946 ft 466 kts 212°
2026-05-06 06:22 22.91036 -17.70088 30943 ft 466 kts 212°
2026-05-06 06:22 22.85421 -17.73625 30948 ft 466 kts 212°
2026-05-06 06:23 22.79799 -17.77164 30948 ft 467 kts 212°
2026-05-06 06:23 22.74161 -17.80710 30938 ft 468 kts 212°
2026-05-06 06:24 22.68562 -17.84227 30948 ft 468 kts 212°
2026-05-06 06:24 22.62915 -17.87771 30948 ft 468 kts 212°
2026-05-06 06:25 22.57274 -17.91311 30937 ft 469 kts 212°
2026-05-06 06:26 22.48824 -17.96599 30939 ft 469 kts 212°
2026-05-06 06:26 22.43157 -18.00144 30948 ft 470 kts 212°
2026-05-06 06:27 22.37521 -18.03666 30948 ft 470 kts 212°
2026-05-06 06:27 22.31848 -18.07207 30939 ft 471 kts 212°
2026-05-06 06:28 22.26170 -18.10749 30943 ft 471 kts 212°
2026-05-06 06:28 22.20507 -18.14278 30948 ft 471 kts 212°
2026-05-06 06:29 22.14821 -18.17819 30948 ft 470 kts 212°
2026-05-06 06:29 22.09151 -18.21343 30946 ft 470 kts 212°
2026-05-06 06:30 22.03479 -18.24868 30938 ft 470 kts 212°
2026-05-06 06:30 21.97842 -18.28369 30943 ft 470 kts 212°
2026-05-06 06:31 21.92164 -18.31892 30948 ft 470 kts 212°
2026-05-06 06:31 21.86477 -18.35416 30942 ft 470 kts 212°
2026-05-06 06:32 21.80800 -18.38929 30946 ft 470 kts 212°
2026-05-06 06:32 21.75113 -18.42448 30942 ft 470 kts 212°
2026-05-06 06:33 21.69475 -18.45929 30947 ft 470 kts 212°
2026-05-06 06:33 21.63799 -18.49434 30943 ft 470 kts 212°
2026-05-06 06:34 21.58119 -18.52941 30949 ft 470 kts 212°
2026-05-06 06:34 21.52441 -18.56439 30948 ft 470 kts 212°
2026-05-06 06:35 21.46759 -18.59939 30939 ft 470 kts 212°
2026-05-06 06:35 21.41074 -18.63435 30944 ft 470 kts 212°
2026-05-06 06:36 21.35434 -18.66902 30942 ft 470 kts 212°
2026-05-06 06:36 21.29756 -18.70388 30944 ft 470 kts 212°
2026-05-06 06:37 21.24069 -18.73874 30945 ft 470 kts 212°
2026-05-06 06:37 21.18413 -18.77338 30948 ft 470 kts 212°
2026-05-06 06:38 21.12727 -18.80819 30938 ft 470 kts 212°
2026-05-06 06:38 21.07041 -18.84296 30940 ft 470 kts 212°
2026-05-06 06:39 21.01395 -18.87746 30946 ft 470 kts 212°
2026-05-06 06:39 20.95721 -18.91212 30947 ft 469 kts 212°
2026-05-06 06:40 20.90042 -18.94676 30939 ft 469 kts 212°
2026-05-06 06:40 20.85324 -18.97551 30944 ft 469 kts 212°
2026-05-06 06:41 20.79643 -19.01014 30950 ft 470 kts 212°
2026-05-06 06:41 20.73950 -19.04478 30938 ft 470 kts 212°
2026-05-06 06:42 20.68270 -19.07928 30939 ft 470 kts 212°
2026-05-06 06:42 20.62584 -19.11381 30948 ft 470 kts 212°
2026-05-06 06:43 20.56935 -19.14810 30947 ft 470 kts 212°
2026-05-06 06:43 20.51254 -19.18256 30947 ft 470 kts 212°
2026-05-06 06:44 20.45557 -19.21708 30937 ft 470 kts 212°
2026-05-06 06:44 20.39897 -19.25136 30947 ft 470 kts 212°
2026-05-06 06:45 20.34195 -19.28584 30948 ft 470 kts 212°
2026-05-06 06:45 20.28495 -19.32028 30939 ft 471 kts 212°
2026-05-06 06:46 20.22821 -19.35453 30946 ft 471 kts 212°
2026-05-06 06:46 20.17117 -19.38893 30947 ft 471 kts 212°
2026-05-06 06:47 20.11406 -19.42336 30948 ft 471 kts 212°
2026-05-06 06:47 20.05699 -19.45774 30942 ft 471 kts 212°
2026-05-06 06:48 19.99980 -19.49218 30937 ft 471 kts 212°
2026-05-06 06:48 19.94304 -19.52632 30948 ft 471 kts 212°
2026-05-06 06:49 19.88594 -19.56064 30937 ft 471 kts 212°
2026-05-06 06:49 19.82868 -19.59499 30939 ft 472 kts 212°
2026-05-06 06:50 19.77148 -19.62928 30947 ft 472 kts 212°
2026-05-06 06:50 19.71464 -19.66337 30949 ft 472 kts 212°
2026-05-06 06:51 19.65727 -19.69773 30947 ft 472 kts 212°
2026-05-06 06:51 19.60001 -19.73198 30939 ft 472 kts 212°
2026-05-06 06:52 19.54309 -19.76600 30954 ft 472 kts 212°
2026-05-06 06:52 19.48581 -19.80021 30954 ft 471 kts 212°
2026-05-06 06:53 19.42859 -19.83437 30955 ft 472 kts 212°
2026-05-06 06:53 19.37137 -19.86851 30952 ft 471 kts 212°
2026-05-06 06:54 19.31454 -19.90238 30954 ft 471 kts 212°
2026-05-06 06:54 19.25733 -19.93646 30953 ft 471 kts 212°
2026-05-06 06:55 19.20013 -19.97051 30954 ft 471 kts 212°
2026-05-06 06:55 19.14294 -20.00450 30954 ft 471 kts 212°
2026-05-06 06:56 19.08606 -20.03830 30954 ft 471 kts 212°
2026-05-06 06:56 19.02880 -20.07236 30955 ft 472 kts 212°
2026-05-06 06:57 18.97153 -20.10633 30955 ft 472 kts 212°
2026-05-06 06:57 18.91416 -20.14031 30953 ft 472 kts 212°
2026-05-06 06:58 18.85677 -20.17430 30955 ft 472 kts 212°
2026-05-06 06:58 18.79971 -20.20807 30954 ft 472 kts 212°
2026-05-06 06:59 18.74228 -20.24202 30960 ft 472 kts 212°
2026-05-06 06:59 18.68495 -20.27594 30965 ft 472 kts 212°
2026-05-06 07:00 18.62760 -20.30978 30962 ft 472 kts 212°
2026-05-06 07:00 18.57056 -20.34342 30964 ft 472 kts 212°
2026-05-06 07:01 18.51326 -20.37721 30963 ft 472 kts 212°
2026-05-06 07:01 18.45595 -20.41099 30964 ft 472 kts 212°
2026-05-06 07:02 18.39850 -20.44481 30963 ft 472 kts 212°
2026-05-06 07:02 18.34114 -20.47854 30963 ft 472 kts 212°
2026-05-06 07:03 18.28414 -20.51203 30972 ft 471 kts 212°
2026-05-06 07:03 18.22678 -20.54573 30973 ft 472 kts 212°
2026-05-06 07:04 18.16944 -20.57939 30972 ft 472 kts 212°
2026-05-06 07:04 18.11234 -20.61287 30972 ft 472 kts 212°
2026-05-06 07:05 18.05491 -20.64650 30971 ft 472 kts 212°
2026-05-06 07:05 17.99743 -20.68018 30973 ft 472 kts 212°
2026-05-06 07:06 17.93998 -20.71377 30977 ft 471 kts 212°
2026-05-06 07:06 17.88297 -20.74710 30984 ft 472 kts 212°
2026-05-06 07:07 17.82558 -20.78067 30972 ft 473 kts 212°
2026-05-06 07:07 17.76805 -20.81421 30972 ft 472 kts 212°
2026-05-06 07:08 17.71093 -20.84764 30970 ft 472 kts 212°
2026-05-06 07:08 17.65335 -20.88113 30975 ft 473 kts 211°
2026-05-06 07:09 17.59580 -20.91463 30972 ft 473 kts 211°
2026-05-06 07:09 17.53808 -20.94817 30978 ft 474 kts 212°
2026-05-06 07:10 17.48073 -20.98155 30981 ft 474 kts 211°
2026-05-06 07:10 17.42305 -21.01511 30981 ft 474 kts 211°
2026-05-06 07:11 17.36531 -21.04864 30983 ft 474 kts 211°
2026-05-06 07:11 17.30804 -21.08190 30980 ft 473 kts 211°
2026-05-06 07:12 17.25048 -21.11532 30982 ft 473 kts 211°
2026-05-06 07:12 17.19287 -21.14864 30981 ft 473 kts 211°
2026-05-06 07:13 17.13528 -21.18197 30980 ft 472 kts 211°
2026-05-06 07:13 17.07771 -21.21527 30982 ft 472 kts 212°
2026-05-06 07:14 17.02024 -21.24856 30982 ft 472 kts 211°
2026-05-06 07:14 16.96293 -21.28167 30983 ft 473 kts 211°
2026-05-06 07:15 16.90522 -21.31501 30983 ft 474 kts 211°
2026-05-06 07:15 16.84747 -21.34838 30979 ft 474 kts 211°
2026-05-06 07:16 16.78954 -21.38172 30983 ft 475 kts 211°
2026-05-06 07:16 16.73197 -21.41489 30981 ft 474 kts 211°
2026-05-06 07:17 16.67419 -21.44815 30982 ft 474 kts 211°
2026-05-06 07:17 16.61636 -21.48141 30991 ft 473 kts 211°
2026-05-06 07:18 16.55872 -21.51462 30992 ft 473 kts 211°
2026-05-06 07:18 16.50145 -21.54753 30989 ft 472 kts 211°
2026-05-06 07:19 16.44395 -21.58045 30990 ft 471 kts 211°
2026-05-06 07:19 16.38646 -21.61351 30993 ft 471 kts 211°
2026-05-06 07:20 16.32882 -21.64658 30995 ft 473 kts 211°
2026-05-06 07:20 16.27107 -21.67971 30989 ft 473 kts 211°
2026-05-06 07:21 16.21363 -21.71259 30991 ft 474 kts 211°
2026-05-06 07:21 16.15576 -21.74575 30990 ft 474 kts 211°
2026-05-06 07:22 16.09789 -21.77879 30990 ft 473 kts 211°
2026-05-06 07:22 16.04048 -21.81162 30990 ft 473 kts 211°
2026-05-06 07:23 15.98270 -21.84465 30988 ft 473 kts 211°
2026-05-06 07:23 15.92495 -21.87758 30997 ft 472 kts 211°
2026-05-06 07:24 15.86770 -21.91020 30988 ft 473 kts 211°
2026-05-06 07:24 15.81001 -21.94299 30991 ft 472 kts 211°
2026-05-06 07:25 15.75230 -21.97586 30992 ft 473 kts 211°
2026-05-06 07:25 15.69455 -22.00872 30989 ft 473 kts 211°
2026-05-06 07:26 15.63704 -22.04135 30997 ft 474 kts 211°
2026-05-06 07:26 15.58858 -22.06888 30989 ft 474 kts 211°
2026-05-06 07:27 15.53110 -22.10154 30991 ft 473 kts 211°
2026-05-06 07:27 15.47324 -22.13440 30995 ft 474 kts 211°
2026-05-06 07:28 15.41524 -22.16723 30989 ft 475 kts 211°
2026-05-06 07:28 15.32825 -22.21655 30996 ft 474 kts 211°
2026-05-06 07:29 15.27062 -22.24915 30988 ft 474 kts 211°
2026-05-06 07:29 15.21268 -22.28185 30993 ft 475 kts 211°
2026-05-06 07:30 15.15469 -22.31460 30989 ft 474 kts 211°
2026-05-06 07:30 15.09675 -22.34739 30998 ft 474 kts 211°
2026-05-06 07:31 15.03913 -22.37993 30990 ft 474 kts 211°
2026-05-06 07:31 14.98110 -22.41265 30992 ft 474 kts 211°
2026-05-06 07:32 14.92312 -22.44532 30989 ft 475 kts 211°
2026-05-06 07:32 14.86496 -22.47813 30993 ft 475 kts 211°
2026-05-06 07:33 14.80721 -22.51066 30990 ft 476 kts 211°
2026-05-06 07:33 14.74909 -22.54339 30992 ft 476 kts 210°
2026-05-06 07:34 14.69079 -22.57617 30990 ft 476 kts 210°
2026-05-06 07:34 14.63253 -22.60886 30991 ft 476 kts 210°
2026-05-06 07:35 14.57467 -22.64137 30990 ft 476 kts 210°
2026-05-06 07:35 14.51636 -22.67413 30991 ft 476 kts 210°
2026-05-06 07:36 14.45822 -22.70674 30991 ft 476 kts 210°
2026-05-06 07:36 14.39991 -22.73946 30989 ft 476 kts 210°
2026-05-06 07:37 14.34203 -22.77191 30998 ft 476 kts 210°
2026-05-06 07:37 14.28366 -22.80455 30990 ft 476 kts 210°
2026-05-06 07:38 14.22540 -22.83719 30991 ft 476 kts 210°
2026-05-06 07:38 14.16743 -22.86962 30992 ft 476 kts 210°
2026-05-06 07:39 14.10900 -22.90229 30991 ft 476 kts 210°
2026-05-06 07:39 14.05070 -22.93487 30991 ft 476 kts 210°
2026-05-06 07:40 13.99241 -22.96742 30991 ft 476 kts 210°
2026-05-06 07:40 13.93450 -22.99974 30988 ft 476 kts 210°
2026-05-06 07:41 13.87614 -23.03229 30992 ft 477 kts 210°
2026-05-06 07:41 13.81804 -23.06469 30991 ft 477 kts 210°
2026-05-06 07:42 13.75963 -23.09723 30990 ft 478 kts 210°
2026-05-06 07:42 13.70112 -23.12981 30991 ft 478 kts 210°
2026-05-06 07:43 13.64260 -23.16238 30991 ft 478 kts 210°
2026-05-06 07:43 13.58407 -23.19493 30989 ft 478 kts 210°
2026-05-06 07:44 13.52565 -23.22743 30991 ft 477 kts 210°
2026-05-06 07:44 13.46747 -23.25975 30990 ft 477 kts 210°
2026-05-06 07:45 13.40901 -23.29221 30992 ft 477 kts 210°
2026-05-06 07:45 13.35054 -23.32469 30990 ft 477 kts 210°
2026-05-06 07:46 13.29208 -23.35713 30990 ft 477 kts 210°
2026-05-06 07:46 13.23394 -23.38942 30992 ft 477 kts 210°
2026-05-06 07:47 13.17542 -23.42189 30991 ft 478 kts 210°
2026-05-06 07:47 13.11685 -23.45436 30989 ft 478 kts 210°
2026-05-06 07:48 13.05827 -23.48681 30991 ft 478 kts 210°
2026-05-06 07:48 12.99972 -23.51922 30991 ft 478 kts 210°
2026-05-06 07:49 12.94148 -23.55145 30991 ft 478 kts 210°
2026-05-06 07:49 12.88282 -23.58386 30991 ft 478 kts 210°
2026-05-06 07:50 12.82417 -23.61632 30992 ft 479 kts 210°
2026-05-06 07:50 12.76577 -23.64858 30990 ft 479 kts 210°
2026-05-06 07:51 12.70696 -23.68107 30991 ft 479 kts 210°
2026-05-06 07:51 12.64824 -23.71347 30991 ft 479 kts 210°
2026-05-06 07:52 12.58950 -23.74588 30991 ft 480 kts 210°
2026-05-06 07:52 12.53064 -23.77831 30992 ft 480 kts 210°
2026-05-06 07:53 12.47176 -23.81073 30990 ft 480 kts 210°
2026-05-06 07:53 12.41318 -23.84302 30992 ft 480 kts 210°
2026-05-06 07:54 12.35420 -23.87552 30989 ft 480 kts 210°
2026-05-06 07:54 12.29568 -23.90773 30990 ft 480 kts 210°
2026-05-06 07:55 12.23679 -23.94008 30992 ft 481 kts 209°
2026-05-06 07:55 12.17766 -23.97256 30990 ft 481 kts 209°
2026-05-06 07:56 12.11899 -24.00481 30994 ft 481 kts 210°
2026-05-06 07:56 12.05999 -24.03722 30990 ft 481 kts 209°
2026-05-06 07:57 12.00105 -24.06956 30991 ft 481 kts 209°
2026-05-06 07:57 11.94199 -24.10195 30991 ft 481 kts 209°
2026-05-06 07:58 11.88308 -24.13427 31283 ft 484 kts 209°
2026-05-06 07:58 11.85337 -24.15053 31653 ft 482 kts 210°
2026-05-06 07:58 11.82388 -24.16669 32038 ft 480 kts 210°
2026-05-06 07:59 11.79444 -24.18281 32395 ft 478 kts 210°
2026-05-06 07:59 11.76515 -24.19884 32702 ft 477 kts 210°
2026-05-06 07:59 11.73576 -24.21492 32921 ft 478 kts 210°
2026-05-06 07:59 11.70674 -24.23081 32942 ft 479 kts 210°
2026-05-06 08:00 11.64807 -24.26293 32980 ft 479 kts 210°
2026-05-06 08:00 11.58938 -24.29504 32997 ft 478 kts 210°
2026-05-06 08:01 11.53069 -24.32711 32998 ft 477 kts 210°
2026-05-06 08:01 11.47246 -24.35893 33000 ft 477 kts 210°
2026-05-06 08:02 11.41394 -24.39091 32997 ft 477 kts 210°
2026-05-06 08:02 11.35541 -24.42284 32998 ft 477 kts 210°
2026-05-06 08:03 11.29721 -24.45460 32979 ft 477 kts 210°
2026-05-06 08:03 11.23865 -24.48654 32982 ft 477 kts 210°
2026-05-06 08:04 11.17999 -24.51851 32981 ft 478 kts 210°
2026-05-06 08:04 11.12120 -24.55055 32999 ft 479 kts 210°
2026-05-06 08:05 11.06273 -24.58239 32997 ft 480 kts 210°
2026-05-06 08:05 11.00373 -24.61452 32997 ft 480 kts 209°
2026-05-06 08:06 10.94473 -24.64662 32979 ft 480 kts 209°
2026-05-06 08:06 10.88600 -24.67855 32983 ft 481 kts 209°
2026-05-06 08:07 10.82691 -24.71068 32998 ft 481 kts 209°
2026-05-06 08:07 10.76781 -24.74277 33001 ft 481 kts 209°
2026-05-06 08:08 10.70873 -24.77487 32999 ft 481 kts 209°
2026-05-06 08:08 10.64997 -24.80678 32980 ft 481 kts 209°
2026-05-06 08:09 10.59077 -24.83892 32996 ft 481 kts 209°
2026-05-06 08:09 10.53210 -24.87074 32999 ft 480 kts 209°
2026-05-06 08:10 10.47304 -24.90276 32997 ft 480 kts 209°
2026-05-06 08:10 10.41391 -24.93479 32977 ft 481 kts 209°
2026-05-06 08:11 10.35510 -24.96667 32995 ft 481 kts 209°
2026-05-06 08:11 10.29599 -24.99866 32979 ft 481 kts 209°
2026-05-06 08:12 10.23694 -25.03062 32985 ft 481 kts 209°
2026-05-06 08:12 10.17807 -25.06247 32975 ft 481 kts 209°
2026-05-06 08:13 10.11894 -25.09446 32983 ft 481 kts 209°
2026-05-06 08:13 10.06982 -25.12103 32983 ft 481 kts 209°
2026-05-06 08:14 10.01059 -25.15302 32998 ft 481 kts 209°
2026-05-06 08:14 9.95147 -25.18497 32995 ft 481 kts 209°
2026-05-06 08:15 9.89224 -25.21695 32997 ft 482 kts 208°
2026-05-06 08:15 9.83322 -25.24875 32996 ft 482 kts 208°
2026-05-06 08:16 9.77380 -25.28076 32978 ft 483 kts 208°
2026-05-06 08:16 9.71445 -25.31275 32985 ft 483 kts 209°
2026-05-06 08:17 9.65514 -25.34469 32977 ft 483 kts 208°
2026-05-06 08:17 9.59575 -25.37667 32997 ft 483 kts 208°
2026-05-06 08:18 9.53640 -25.40861 32976 ft 483 kts 208°
2026-05-06 08:18 9.47734 -25.44036 32979 ft 482 kts 208°
2026-05-06 08:19 9.41799 -25.47228 32980 ft 482 kts 208°
2026-05-06 08:19 9.35866 -25.50418 32986 ft 482 kts 208°
2026-05-06 08:20 9.29959 -25.53592 32975 ft 482 kts 208°
2026-05-06 08:20 9.24015 -25.56786 32997 ft 482 kts 208°
2026-05-06 08:21 9.18083 -25.59970 32978 ft 483 kts 208°
2026-05-06 08:21 9.12183 -25.63135 32979 ft 483 kts 208°
2026-05-06 08:22 9.06248 -25.66321 32981 ft 483 kts 208°
2026-05-06 08:22 9.00301 -25.69513 32998 ft 483 kts 208°
2026-05-06 08:23 8.94359 -25.72693 32997 ft 483 kts 208°
2026-05-06 08:23 8.88445 -25.75866 32982 ft 484 kts 208°
2026-05-06 08:24 8.82486 -25.79058 32979 ft 484 kts 208°
2026-05-06 08:24 8.76536 -25.82245 33003 ft 484 kts 208°
2026-05-06 08:25 8.70579 -25.85435 32998 ft 484 kts 208°
2026-05-06 08:25 8.64618 -25.88622 33001 ft 484 kts 208°
2026-05-06 08:26 8.58693 -25.91792 32979 ft 485 kts 208°
2026-05-06 08:26 8.52718 -25.94990 32981 ft 485 kts 208°
2026-05-06 08:27 8.46729 -25.98190 32997 ft 485 kts 208°
2026-05-06 08:27 8.40759 -26.01379 32998 ft 485 kts 208°
2026-05-06 08:28 8.34815 -26.04559 32986 ft 486 kts 208°
2026-05-06 08:28 8.28839 -26.07746 32982 ft 486 kts 208°
2026-05-06 08:29 8.22853 -26.10941 32996 ft 485 kts 208°
2026-05-06 08:29 8.16883 -26.14128 32997 ft 485 kts 208°
2026-05-06 08:30 8.10934 -26.17301 32982 ft 485 kts 208°
2026-05-06 08:30 8.04955 -26.20492 32989 ft 485 kts 208°
2026-05-06 08:31 7.99025 -26.23654 32983 ft 485 kts 208°
2026-05-06 08:31 7.93057 -26.26837 32981 ft 485 kts 208°
2026-05-06 08:32 7.87090 -26.30018 32998 ft 485 kts 208°
2026-05-06 08:32 7.81150 -26.33182 32983 ft 485 kts 208°
2026-05-06 08:33 7.75172 -26.36364 32982 ft 485 kts 208°
2026-05-06 08:33 7.69191 -26.39549 32995 ft 486 kts 208°
2026-05-06 08:34 7.60249 -26.44309 32980 ft 486 kts 208°
2026-05-06 08:35 7.54265 -26.47493 32981 ft 486 kts 208°
2026-05-06 08:35 7.48267 -26.50682 32996 ft 487 kts 208°
2026-05-06 08:36 7.42258 -26.53876 32998 ft 487 kts 208°
2026-05-06 08:36 7.36257 -26.57066 32980 ft 488 kts 208°
2026-05-06 08:37 7.30280 -26.60243 32996 ft 488 kts 208°
2026-05-06 08:37 7.24256 -26.63442 32995 ft 488 kts 208°
2026-05-06 08:38 7.18237 -26.66638 32982 ft 489 kts 208°
2026-05-06 08:38 7.12241 -26.69821 32978 ft 489 kts 208°
2026-05-06 08:39 7.06221 -26.73016 32975 ft 489 kts 208°
2026-05-06 08:39 7.00184 -26.76219 32980 ft 489 kts 208°
2026-05-06 08:40 6.94159 -26.79416 32978 ft 490 kts 208°
2026-05-06 08:40 6.88156 -26.82601 32982 ft 490 kts 208°
2026-05-06 08:41 6.82107 -26.85804 32984 ft 490 kts 208°
2026-05-06 08:41 6.76070 -26.89001 32980 ft 490 kts 208°
2026-05-06 08:42 6.70058 -26.92187 32987 ft 490 kts 208°
2026-05-06 08:42 6.64011 -26.95391 32978 ft 491 kts 208°
2026-05-06 08:43 6.57971 -26.98592 32977 ft 491 kts 208°
2026-05-06 08:43 6.51918 -27.01795 32970 ft 491 kts 208°
2026-05-06 08:44 6.45887 -27.04987 32986 ft 491 kts 207°
2026-05-06 08:44 6.39868 -27.08170 32978 ft 491 kts 207°
2026-05-06 08:45 6.33813 -27.11369 32980 ft 491 kts 207°
2026-05-06 08:45 6.27750 -27.14571 32987 ft 491 kts 207°
2026-05-06 08:46 6.21727 -27.17751 32987 ft 492 kts 207°
2026-05-06 08:46 6.15657 -27.20956 32976 ft 492 kts 207°
2026-05-06 08:47 6.09622 -27.24141 32979 ft 492 kts 207°
2026-05-06 08:47 6.03567 -27.27338 32979 ft 492 kts 207°
2026-05-06 08:48 5.97505 -27.30539 32986 ft 491 kts 207°
2026-05-06 08:48 5.91436 -27.33740 32992 ft 492 kts 207°
2026-05-06 08:49 5.85409 -27.36919 32978 ft 492 kts 207°
2026-05-06 08:49 5.79348 -27.40114 32980 ft 492 kts 207°
2026-05-06 08:50 5.73278 -27.43313 32983 ft 492 kts 207°
2026-05-06 08:50 5.67196 -27.46519 32994 ft 493 kts 207°
2026-05-06 08:51 5.61117 -27.49722 32968 ft 493 kts 207°
2026-05-06 08:51 5.55080 -27.52904 32976 ft 493 kts 207°
2026-05-06 08:52 5.49007 -27.56101 32979 ft 493 kts 207°
2026-05-06 08:52 5.42931 -27.59303 32985 ft 492 kts 207°
2026-05-06 08:53 5.36866 -27.62494 32977 ft 492 kts 207°
2026-05-06 08:53 5.30796 -27.65688 32980 ft 492 kts 207°
2026-05-06 08:54 5.24755 -27.68868 32988 ft 493 kts 207°
2026-05-06 08:54 5.18674 -27.72067 32966 ft 493 kts 207°
2026-05-06 08:55 5.12583 -27.75268 32977 ft 493 kts 207°
2026-05-06 08:55 5.06547 -27.78441 32984 ft 492 kts 207°
2026-05-06 08:56 5.00484 -27.81630 32981 ft 492 kts 207°
2026-05-06 08:56 4.94411 -27.84822 32989 ft 492 kts 207°
2026-05-06 08:57 4.88345 -27.88005 32982 ft 491 kts 207°
2026-05-06 08:57 4.82293 -27.91192 32989 ft 491 kts 207°
2026-05-06 08:58 4.76255 -27.94365 32977 ft 492 kts 207°
2026-05-06 08:58 4.70177 -27.97555 32987 ft 492 kts 207°
2026-05-06 08:59 4.64138 -28.00725 32979 ft 492 kts 207°
2026-05-06 08:59 4.58074 -28.03908 32976 ft 492 kts 207°
2026-05-06 09:00 4.53023 -28.06559 32978 ft 491 kts 207°
2026-05-06 09:00 4.45979 -28.10255 32978 ft 491 kts 207°
2026-05-06 09:01 4.39917 -28.13435 32978 ft 491 kts 207°
2026-05-06 09:01 4.34884 -28.16078 32996 ft 491 kts 207°
2026-05-06 09:02 4.28825 -28.19255 32977 ft 491 kts 207°
2026-05-06 09:02 4.22756 -28.22439 32981 ft 491 kts 207°
2026-05-06 09:03 4.16724 -28.25602 32981 ft 491 kts 207°
2026-05-06 09:03 4.10664 -28.28777 32982 ft 491 kts 207°
2026-05-06 09:04 4.04600 -28.31952 32976 ft 491 kts 207°
2026-05-06 09:04 3.98566 -28.35119 32981 ft 491 kts 207°
2026-05-06 09:05 3.92505 -28.38295 32978 ft 492 kts 207°
2026-05-06 09:05 3.86468 -28.41456 32983 ft 492 kts 207°
2026-05-06 09:06 3.80391 -28.44638 32982 ft 492 kts 207°
2026-05-06 09:06 3.74322 -28.47817 32988 ft 492 kts 207°
2026-05-06 09:07 3.68268 -28.50990 32989 ft 491 kts 207°
2026-05-06 09:07 3.62237 -28.54148 32982 ft 491 kts 207°
2026-05-06 09:08 3.56153 -28.57331 32985 ft 491 kts 207°
2026-05-06 09:08 3.50129 -28.60485 32975 ft 491 kts 207°
2026-05-06 09:09 3.44063 -28.63657 32978 ft 491 kts 207°
2026-05-06 09:09 3.38005 -28.66829 32981 ft 491 kts 207°
2026-05-06 09:10 3.31973 -28.69984 32981 ft 491 kts 207°
2026-05-06 09:10 3.25904 -28.73158 32978 ft 492 kts 207°
2026-05-06 09:11 3.19833 -28.76335 32996 ft 492 kts 207°
2026-05-06 09:11 3.13802 -28.79491 32976 ft 492 kts 207°
2026-05-06 09:12 3.07725 -28.82671 32982 ft 492 kts 207°
2026-05-06 09:12 3.01648 -28.85859 32979 ft 493 kts 207°
2026-05-06 09:13 2.95573 -28.89050 32979 ft 493 kts 207°
2026-05-06 09:13 2.89529 -28.92222 32985 ft 493 kts 207°
2026-05-06 09:14 2.83452 -28.95410 32983 ft 493 kts 207°
2026-05-06 09:14 2.77374 -28.98598 32979 ft 493 kts 207°
2026-05-06 09:15 2.71302 -29.01781 32990 ft 493 kts 207°
2026-05-06 09:15 2.65227 -29.04969 32975 ft 492 kts 207°
2026-05-06 09:16 2.59188 -29.08137 32986 ft 493 kts 207°
2026-05-06 09:16 2.53116 -29.11320 32978 ft 493 kts 207°
2026-05-06 09:17 2.47029 -29.14509 32977 ft 493 kts 207°
2026-05-06 09:17 2.40944 -29.17698 32982 ft 492 kts 207°
2026-05-06 09:18 2.34909 -29.20861 32978 ft 492 kts 207°
2026-05-06 09:18 2.28833 -29.24046 32979 ft 492 kts 207°
2026-05-06 09:19 2.22755 -29.27232 32987 ft 493 kts 207°
2026-05-06 09:19 2.16701 -29.30404 32989 ft 493 kts 207°
2026-05-06 09:20 2.10609 -29.33595 32981 ft 493 kts 207°
2026-05-06 09:20 2.04550 -29.36769 32983 ft 493 kts 207°
2026-05-06 09:21 1.98469 -29.39953 32986 ft 493 kts 207°
2026-05-06 09:21 1.92387 -29.43139 32978 ft 493 kts 207°
2026-05-06 09:22 1.86298 -29.46330 32986 ft 494 kts 207°
2026-05-06 09:22 1.80194 -29.49527 32975 ft 494 kts 207°
2026-05-06 09:23 1.74137 -29.52700 32984 ft 494 kts 207°
2026-05-06 09:23 1.68036 -29.55895 32986 ft 494 kts 207°
2026-05-06 09:24 1.61948 -29.59085 32978 ft 494 kts 207°
2026-05-06 09:24 1.55885 -29.62257 32980 ft 494 kts 207°
2026-05-06 09:25 1.49774 -29.65457 32988 ft 494 kts 207°
2026-05-06 09:25 1.43704 -29.68636 32979 ft 494 kts 207°
2026-05-06 09:26 1.37594 -29.71831 32986 ft 494 kts 207°
2026-05-06 09:26 1.31525 -29.74973 32982 ft 494 kts 206°
2026-05-06 09:27 1.25405 -29.78132 32972 ft 494 kts 207°
2026-05-06 09:27 1.19298 -29.81288 32971 ft 494 kts 207°
2026-05-06 09:28 1.13220 -29.84435 32970 ft 494 kts 207°
2026-05-06 09:28 1.07110 -29.87598 32976 ft 494 kts 207°
2026-05-06 09:29 1.00991 -29.90763 32974 ft 494 kts 207°
2026-05-06 09:29 0.94875 -29.93929 32980 ft 495 kts 207°
2026-05-06 09:30 0.88762 -29.97093 32968 ft 495 kts 207°
2026-05-06 09:30 0.82679 -30.00239 32968 ft 495 kts 207°
2026-05-06 09:31 0.76553 -30.03409 32976 ft 495 kts 207°
2026-05-06 09:31 0.70435 -30.06577 32977 ft 495 kts 207°
2026-05-06 09:32 0.64309 -30.09744 32967 ft 495 kts 207°
2026-05-06 09:32 0.58212 -30.12898 32975 ft 495 kts 207°
2026-05-06 09:33 0.52091 -30.16065 32975 ft 495 kts 207°
2026-05-06 09:33 0.45966 -30.19236 32978 ft 495 kts 207°
2026-05-06 09:34 0.39853 -30.22396 32970 ft 495 kts 207°
2026-05-06 09:34 0.33740 -30.25559 32974 ft 495 kts 207°
2026-05-06 09:35 0.27653 -30.28709 32976 ft 495 kts 207°
2026-05-06 09:35 0.21537 -30.31872 32970 ft 495 kts 207°
2026-05-06 09:36 0.15410 -30.35037 32973 ft 495 kts 207°
2026-05-06 09:36 0.09280 -30.38206 32974 ft 496 kts 207°
2026-05-06 09:37 0.03182 -30.41363 32980 ft 496 kts 207°
2026-05-06 09:37 -0.02947 -30.44530 32968 ft 496 kts 207°
2026-05-06 09:38 -0.09084 -30.47700 32975 ft 496 kts 207°
2026-05-06 09:38 -0.15219 -30.50871 32968 ft 496 kts 207°
2026-05-06 09:39 -0.21316 -30.54025 32971 ft 495 kts 207°
2026-05-06 09:39 -0.27439 -30.57189 32967 ft 495 kts 207°
2026-05-06 09:40 -0.33564 -30.60357 32976 ft 495 kts 207°
2026-05-06 09:40 -0.42725 -30.65093 32975 ft 495 kts 207°
2026-05-06 09:41 -0.48842 -30.68256 32977 ft 495 kts 207°
2026-05-06 09:41 -0.54963 -30.71421 32978 ft 495 kts 207°
2026-05-06 09:42 -0.61087 -30.74588 32978 ft 495 kts 207°
2026-05-06 09:42 -0.67213 -30.77756 32975 ft 495 kts 207°
2026-05-06 09:43 -0.73293 -30.80900 32978 ft 495 kts 207°
2026-05-06 09:43 -0.79413 -30.84065 32979 ft 495 kts 207°
2026-05-06 09:44 -0.85528 -30.87227 32970 ft 495 kts 207°
2026-05-06 09:44 -0.91622 -30.90382 32973 ft 495 kts 207°
2026-05-06 09:45 -0.97745 -30.93544 32973 ft 495 kts 207°
2026-05-06 09:45 -1.03861 -30.96697 32972 ft 495 kts 207°
2026-05-06 09:46 -1.09985 -30.99855 32978 ft 495 kts 207°
2026-05-06 09:46 -1.16112 -31.03018 32970 ft 495 kts 207°
2026-05-06 09:47 -1.22204 -31.06159 32966 ft 495 kts 207°
2026-05-06 09:47 -1.28318 -31.09319 32970 ft 495 kts 207°
2026-05-06 09:48 -1.33410 -31.11951 32973 ft 495 kts 207°
2026-05-06 09:48 -1.39537 -31.15115 32972 ft 495 kts 207°
2026-05-06 09:49 -1.45660 -31.18274 32967 ft 495 kts 207°
2026-05-06 09:49 -1.51802 -31.21448 32979 ft 495 kts 207°
2026-05-06 09:50 -1.57928 -31.24607 32970 ft 495 kts 207°
2026-05-06 09:50 -1.64013 -31.27750 32966 ft 494 kts 207°
2026-05-06 09:51 -1.70132 -31.30911 32969 ft 494 kts 207°
2026-05-06 09:51 -1.76208 -31.34049 32979 ft 493 kts 207°
2026-05-06 09:52 -1.82314 -31.37203 32969 ft 493 kts 207°
2026-05-06 09:52 -1.88419 -31.40356 32967 ft 493 kts 207°
2026-05-06 09:53 -1.94483 -31.43494 32971 ft 493 kts 207°
2026-05-06 09:53 -2.00597 -31.46650 32968 ft 493 kts 207°
2026-05-06 09:54 -2.06669 -31.49784 32978 ft 494 kts 207°
2026-05-06 09:54 -2.12788 -31.52946 32970 ft 494 kts 207°
2026-05-06 09:55 -2.18897 -31.56104 32979 ft 494 kts 207°
2026-05-06 09:55 -2.25000 -31.59264 32976 ft 493 kts 207°
2026-05-06 09:56 -2.31065 -31.62393 32966 ft 493 kts 207°
2026-05-06 09:56 -2.37165 -31.65550 32966 ft 493 kts 207°
2026-05-06 09:57 -2.43272 -31.68704 32968 ft 493 kts 207°
2026-05-06 09:57 -2.49378 -31.71861 32960 ft 493 kts 207°
2026-05-06 09:58 -2.55435 -31.74994 32963 ft 493 kts 207°
2026-05-06 09:58 -2.61534 -31.78144 32961 ft 493 kts 207°
2026-05-06 09:59 -2.67642 -31.81309 32966 ft 494 kts 207°
2026-05-06 09:59 -2.73719 -31.84451 32961 ft 494 kts 207°
2026-05-06 10:00 -2.79833 -31.87613 32961 ft 494 kts 207°
2026-05-06 10:00 -2.85950 -31.90777 32961 ft 494 kts 207°
2026-05-06 10:01 -2.92064 -31.93941 32966 ft 495 kts 207°
2026-05-06 10:01 -2.98190 -31.97113 32966 ft 495 kts 208°
2026-05-06 10:02 -3.04312 -32.00282 32961 ft 495 kts 208°
2026-05-06 10:02 -3.10413 -32.03441 32969 ft 495 kts 208°
2026-05-06 10:03 -3.16538 -32.06611 32960 ft 495 kts 208°
2026-05-06 10:03 -3.22661 -32.09783 32960 ft 495 kts 208°
2026-05-06 10:04 -3.28749 -32.12939 32965 ft 495 kts 208°
2026-05-06 10:04 -3.34849 -32.16151 32964 ft 495 kts 208°
2026-05-06 10:05 -3.40933 -32.19370 32961 ft 495 kts 208°
2026-05-06 10:05 -3.47033 -32.22593 32962 ft 495 kts 208°
2026-05-06 10:06 -3.53143 -32.25816 32961 ft 495 kts 208°
2026-05-06 10:06 -3.59200 -32.29013 32963 ft 495 kts 208°
2026-05-06 10:07 -3.65306 -32.32238 32968 ft 495 kts 208°
2026-05-06 10:07 -3.71419 -32.35462 32960 ft 496 kts 208°
2026-05-06 10:08 -3.77527 -32.38688 32960 ft 496 kts 208°
2026-05-06 10:08 -3.83587 -32.41890 32959 ft 496 kts 208°
2026-05-06 10:09 -3.89704 -32.45089 32965 ft 496 kts 208°
2026-05-06 10:09 -3.95852 -32.48239 32967 ft 496 kts 207°
2026-05-06 10:10 -4.02011 -32.51394 32964 ft 496 kts 208°
2026-05-06 10:10 -4.08126 -32.54538 32959 ft 496 kts 208°
2026-05-06 10:11 -4.14279 -32.57701 32965 ft 497 kts 208°
2026-05-06 10:11 -4.20431 -32.60869 32965 ft 496 kts 208°
2026-05-06 10:12 -4.26540 -32.64016 32965 ft 496 kts 208°
2026-05-06 10:12 -4.32681 -32.67180 32964 ft 496 kts 208°
2026-05-06 10:13 -4.38842 -32.70353 32960 ft 496 kts 208°
2026-05-06 10:13 -4.44989 -32.73519 32961 ft 496 kts 208°
2026-05-06 10:14 -4.51104 -32.76670 32974 ft 495 kts 208°
2026-05-06 10:14 -4.57231 -32.79830 32982 ft 495 kts 208°
2026-05-06 10:15 -4.63376 -32.82994 32997 ft 495 kts 208°
2026-05-06 10:15 -4.69485 -32.86132 32998 ft 496 kts 208°
2026-05-06 10:16 -4.75640 -32.89293 32986 ft 496 kts 208°
2026-05-06 10:16 -4.81758 -32.92433 32979 ft 495 kts 208°
2026-05-06 10:17 -4.87900 -32.95595 32995 ft 496 kts 208°
2026-05-06 10:17 -4.94048 -32.98752 32996 ft 496 kts 208°
2026-05-06 10:18 -5.00202 -33.01916 32989 ft 496 kts 208°
2026-05-06 10:18 -5.06300 -33.05054 32988 ft 496 kts 208°
2026-05-06 10:19 -5.12455 -33.08222 32995 ft 496 kts 208°
2026-05-06 10:19 -5.18614 -33.11393 32989 ft 496 kts 208°
2026-05-06 10:20 -5.24756 -33.14555 32986 ft 496 kts 208°
2026-05-06 10:20 -5.30893 -33.17715 32995 ft 495 kts 208°
2026-05-06 10:21 -5.36990 -33.20856 32997 ft 495 kts 208°
2026-05-06 10:21 -5.43133 -33.24020 32985 ft 495 kts 208°
2026-05-06 10:22 -5.49262 -33.27177 32993 ft 495 kts 208°
2026-05-06 10:22 -5.55407 -33.30343 32995 ft 495 kts 208°
2026-05-06 10:23 -5.61537 -33.33502 32995 ft 495 kts 208°
2026-05-06 10:23 -5.67631 -33.36648 32984 ft 495 kts 208°
2026-05-06 10:24 -5.73763 -33.39810 32983 ft 495 kts 208°
2026-05-06 10:24 -5.79899 -33.42972 32997 ft 495 kts 208°
2026-05-06 10:25 -5.86039 -33.46141 33002 ft 495 kts 208°
2026-05-06 10:25 -5.92135 -33.49285 33000 ft 495 kts 208°
2026-05-06 10:26 -5.98278 -33.52459 33006 ft 495 kts 208°
2026-05-06 10:26 -6.04414 -33.55629 33009 ft 495 kts 208°
2026-05-06 10:27 -6.10553 -33.58798 33011 ft 496 kts 208°
2026-05-06 10:27 -6.16665 -33.61953 33008 ft 495 kts 208°
2026-05-06 10:28 -6.22801 -33.65127 33012 ft 495 kts 208°
2026-05-06 10:28 -6.28939 -33.68301 33009 ft 496 kts 208°
2026-05-06 10:29 -6.35041 -33.71455 33007 ft 496 kts 208°
2026-05-06 10:29 -6.41177 -33.74627 33008 ft 496 kts 208°
2026-05-06 10:30 -6.47321 -33.77806 33007 ft 495 kts 208°
2026-05-06 10:30 -6.53417 -33.80962 33010 ft 495 kts 208°
2026-05-06 10:31 -6.59546 -33.84135 33009 ft 495 kts 208°
2026-05-06 10:31 -6.65683 -33.87312 33010 ft 495 kts 208°
2026-05-06 10:32 -6.70775 -33.89949 33008 ft 495 kts 208°
2026-05-06 10:32 -6.77907 -33.93644 33009 ft 495 kts 208°
2026-05-06 10:33 -6.83045 -33.96305 33008 ft 496 kts 208°
2026-05-06 10:33 -6.89145 -33.99468 33011 ft 496 kts 208°
2026-05-06 10:34 -6.95296 -34.02658 33016 ft 496 kts 208°
2026-05-06 10:34 -7.01434 -34.05841 33017 ft 496 kts 208°
2026-05-06 10:35 -7.07553 -34.09014 33020 ft 496 kts 208°
2026-05-06 10:35 -7.13702 -34.12206 33011 ft 496 kts 209°
2026-05-06 10:36 -7.19844 -34.15395 33008 ft 496 kts 208°
2026-05-06 10:36 -7.25943 -34.18563 33010 ft 496 kts 208°
2026-05-06 10:37 -7.32089 -34.21754 33009 ft 496 kts 208°
2026-05-06 10:37 -7.38226 -34.24944 33010 ft 496 kts 208°
2026-05-06 10:38 -7.44359 -34.28130 33008 ft 496 kts 209°
2026-05-06 10:38 -7.50473 -34.31308 33010 ft 496 kts 209°
2026-05-06 10:39 -7.56622 -34.34508 33009 ft 497 kts 209°
2026-05-06 10:39 -7.62738 -34.37690 33010 ft 497 kts 209°
2026-05-06 10:40 -7.68893 -34.40894 33009 ft 497 kts 209°
2026-05-06 10:40 -7.75033 -34.44092 33003 ft 497 kts 209°
2026-05-06 10:41 -7.81152 -34.47340 32998 ft 496 kts 210°
2026-05-06 10:41 -7.87203 -34.50629 33001 ft 496 kts 210°
2026-05-06 10:42 -7.93283 -34.53928 33004 ft 497 kts 210°
2026-05-06 10:42 -7.99381 -34.57226 32999 ft 497 kts 210°
2026-05-06 10:43 -8.05478 -34.60522 32997 ft 496 kts 210°
2026-05-06 10:44 -8.14637 -34.65359 32982 ft 498 kts 205°
2026-05-06 10:44 -8.21053 -34.68007 32990 ft 498 kts 203°
2026-05-06 10:45 -8.27498 -34.70606 32995 ft 498 kts 204°
2026-05-06 10:45 -8.33868 -34.73222 32996 ft 497 kts 204°
2026-05-06 10:46 -8.40284 -34.75882 33000 ft 497 kts 204°
2026-05-06 10:46 -8.46701 -34.78552 33001 ft 497 kts 204°
2026-05-06 10:47 -8.53062 -34.81195 33000 ft 497 kts 204°
2026-05-06 10:47 -8.59471 -34.83863 33000 ft 497 kts 204°
2026-05-06 10:48 -8.65866 -34.86521 33000 ft 497 kts 204°
2026-05-06 10:48 -8.72232 -34.89169 33003 ft 497 kts 204°
2026-05-06 10:49 -8.78626 -34.91832 33009 ft 497 kts 204°
2026-05-06 10:49 -8.85029 -34.94495 33010 ft 497 kts 204°
2026-05-06 10:50 -8.91424 -34.97159 33008 ft 497 kts 204°
2026-05-06 10:50 -8.97817 -34.99823 33009 ft 497 kts 204°
2026-05-06 10:51 -9.04218 -35.02492 33017 ft 497 kts 205°
2026-05-06 10:51 -9.10307 -35.05676 33021 ft 494 kts 212°
2026-05-06 10:52 -9.16264 -35.09177 33019 ft 495 kts 212°
2026-05-06 10:52 -9.22232 -35.12672 33020 ft 496 kts 212°
2026-05-06 10:53 -9.28215 -35.16142 33018 ft 495 kts 211°
2026-05-06 10:53 -9.34174 -35.19591 33017 ft 495 kts 211°
2026-05-06 10:54 -9.40167 -35.23061 33018 ft 494 kts 211°
2026-05-06 10:54 -9.46139 -35.26517 33016 ft 494 kts 211°
2026-05-06 10:55 -9.52119 -35.29980 33018 ft 494 kts 211°
2026-05-06 10:55 -9.58045 -35.33411 33017 ft 494 kts 212°
2026-05-06 10:56 -9.64015 -35.36875 33020 ft 494 kts 212°
2026-05-06 10:56 -9.69977 -35.40336 33019 ft 494 kts 212°
2026-05-06 10:57 -9.75948 -35.43802 33019 ft 494 kts 211°
2026-05-06 10:57 -9.81909 -35.47260 33018 ft 493 kts 211°
2026-05-06 10:58 -9.87870 -35.50722 33017 ft 493 kts 211°
2026-05-06 10:58 -9.93788 -35.54163 33019 ft 493 kts 211°
2026-05-06 10:59 -9.99759 -35.57633 33019 ft 493 kts 211°
2026-05-06 10:59 -10.05714 -35.61096 33017 ft 493 kts 212°
2026-05-06 11:00 -10.11664 -35.64558 33020 ft 493 kts 211°
2026-05-06 11:00 -10.17589 -35.68006 33018 ft 493 kts 211°
2026-05-06 11:01 -10.23552 -35.71481 33035 ft 495 kts 212°
2026-05-06 11:01 -10.26552 -35.73228 33243 ft 496 kts 211°
2026-05-06 11:01 -10.29544 -35.74970 33611 ft 495 kts 212°
2026-05-06 11:01 -10.32490 -35.76687 34011 ft 492 kts 212°
2026-05-06 11:02 -10.35451 -35.78412 34425 ft 489 kts 212°
2026-05-06 11:02 -10.38408 -35.80137 34793 ft 487 kts 212°
2026-05-06 11:02 -10.41348 -35.81851 34966 ft 488 kts 212°
2026-05-06 11:03 -10.47267 -35.85303 35020 ft 489 kts 212°
2026-05-06 11:03 -10.53152 -35.88740 35024 ft 486 kts 212°
2026-05-06 11:04 -10.58984 -35.92141 35026 ft 485 kts 212°
2026-05-06 11:04 -10.64831 -35.95555 35026 ft 483 kts 212°
2026-05-06 11:05 -10.70645 -35.98956 35028 ft 484 kts 212°
2026-05-06 11:05 -10.76485 -36.02369 35034 ft 484 kts 212°
2026-05-06 11:06 -10.82334 -36.05789 35027 ft 484 kts 212°
2026-05-06 11:06 -10.88187 -36.09212 35027 ft 485 kts 212°
2026-05-06 11:07 -10.94044 -36.12643 35028 ft 485 kts 212°
2026-05-06 11:07 -10.99867 -36.16055 35031 ft 486 kts 212°
2026-05-06 11:08 -11.05748 -36.19501 35027 ft 486 kts 212°
2026-05-06 11:08 -11.11588 -36.22926 35030 ft 487 kts 212°
2026-05-06 11:09 -11.17528 -36.26266 35022 ft 488 kts 209°
2026-05-06 11:09 -11.23592 -36.29375 35028 ft 488 kts 208°
2026-05-06 11:10 -11.29658 -36.32481 35027 ft 488 kts 209°
2026-05-06 11:10 -11.35711 -36.35633 35026 ft 487 kts 209°
2026-05-06 11:11 -11.41739 -36.38798 35028 ft 487 kts 210°
2026-05-06 11:11 -11.47752 -36.41957 35027 ft 487 kts 209°
2026-05-06 11:12 -11.53779 -36.45121 35026 ft 487 kts 209°
2026-05-06 11:12 -11.59810 -36.48290 35029 ft 487 kts 209°
2026-05-06 11:13 -11.65809 -36.51444 35030 ft 487 kts 209°
2026-05-06 11:13 -11.71864 -36.54634 35026 ft 488 kts 209°
2026-05-06 11:14 -11.77856 -36.57782 35030 ft 488 kts 209°
2026-05-06 11:14 -11.83892 -36.60958 35050 ft 487 kts 209°
2026-05-06 11:15 -11.89926 -36.64137 35054 ft 487 kts 209°
2026-05-06 11:15 -11.95947 -36.67309 35057 ft 487 kts 209°
2026-05-06 11:16 -12.01986 -36.70493 35055 ft 487 kts 209°
2026-05-06 11:16 -12.07984 -36.73657 35056 ft 487 kts 209°
2026-05-06 11:17 -12.14014 -36.76838 35051 ft 487 kts 209°
2026-05-06 11:17 -12.20043 -36.80021 35056 ft 487 kts 209°
2026-05-06 11:18 -12.26035 -36.83188 35054 ft 487 kts 210°
2026-05-06 11:18 -12.32058 -36.86373 35057 ft 487 kts 210°
2026-05-06 11:19 -12.38078 -36.89555 35060 ft 486 kts 209°
2026-05-06 11:19 -12.43090 -36.92204 35066 ft 486 kts 210°
2026-05-06 11:20 -12.50079 -36.95905 35065 ft 485 kts 210°
2026-05-06 11:20 -12.55063 -36.98544 35066 ft 485 kts 210°
2026-05-06 11:21 -12.61063 -37.01724 35063 ft 485 kts 210°
2026-05-06 11:21 -12.67068 -37.04908 35066 ft 485 kts 209°
2026-05-06 11:22 -12.73062 -37.08084 35066 ft 485 kts 209°
2026-05-06 11:22 -12.79019 -37.11248 35064 ft 485 kts 209°
2026-05-06 11:23 -12.85008 -37.14428 35060 ft 485 kts 209°
2026-05-06 11:23 -12.91007 -37.17617 35075 ft 485 kts 210°
2026-05-06 11:24 -12.96999 -37.20802 35077 ft 484 kts 209°
2026-05-06 11:24 -13.02958 -37.23972 35081 ft 485 kts 209°
2026-05-06 11:25 -13.08937 -37.27156 35077 ft 485 kts 210°
2026-05-06 11:25 -13.14937 -37.30350 35078 ft 485 kts 209°
2026-05-06 11:26 -13.20943 -37.33548 35086 ft 485 kts 209°
2026-05-06 11:26 -13.26910 -37.36726 35077 ft 485 kts 209°
2026-05-06 11:27 -13.32900 -37.39922 35080 ft 485 kts 209°
2026-05-06 11:27 -13.38892 -37.43119 35079 ft 485 kts 209°
2026-05-06 11:28 -13.44838 -37.46298 35090 ft 484 kts 209°
2026-05-06 11:28 -13.50830 -37.49496 35077 ft 484 kts 209°
2026-05-06 11:29 -13.56811 -37.52691 35090 ft 484 kts 209°
2026-05-06 11:29 -13.62780 -37.55886 35084 ft 483 kts 209°
2026-05-06 11:30 -13.68749 -37.59079 35078 ft 484 kts 209°
2026-05-06 11:30 -13.74681 -37.62260 35087 ft 483 kts 209°
2026-05-06 11:31 -13.80655 -37.65462 35083 ft 483 kts 209°
2026-05-06 11:31 -13.86626 -37.68664 35098 ft 483 kts 209°
2026-05-06 11:32 -13.92549 -37.71839 35101 ft 482 kts 209°
2026-05-06 11:32 -13.98506 -37.75038 35097 ft 482 kts 209°
2026-05-06 11:33 -14.04480 -37.78245 35081 ft 483 kts 209°
2026-05-06 11:33 -14.10399 -37.81426 35095 ft 482 kts 209°
2026-05-06 11:34 -14.16362 -37.84632 35100 ft 482 kts 209°
2026-05-06 11:34 -14.22317 -37.87839 35102 ft 482 kts 209°
2026-05-06 11:35 -14.28235 -37.91025 35100 ft 483 kts 209°
2026-05-06 11:35 -14.34190 -37.94232 35101 ft 483 kts 209°
2026-05-06 11:36 -14.40160 -37.97451 35109 ft 483 kts 209°
2026-05-06 11:36 -14.46129 -38.00670 35110 ft 484 kts 209°
2026-05-06 11:37 -14.52057 -38.03869 35111 ft 483 kts 209°
2026-05-06 11:37 -14.58020 -38.07089 35111 ft 483 kts 209°
2026-05-06 11:38 -14.63979 -38.10309 35110 ft 483 kts 209°
2026-05-06 11:38 -14.69932 -38.13528 35119 ft 482 kts 209°
2026-05-06 11:39 -14.75881 -38.16745 35120 ft 482 kts 209°
2026-05-06 11:39 -14.81780 -38.19940 35121 ft 482 kts 209°
2026-05-06 11:40 -14.87729 -38.23163 35128 ft 481 kts 209°
2026-05-06 11:40 -14.93665 -38.26381 35130 ft 481 kts 209°
2026-05-06 11:41 -14.99566 -38.29583 35125 ft 481 kts 209°
2026-05-06 11:41 -15.05496 -38.32801 35129 ft 481 kts 209°
2026-05-06 11:42 -15.11423 -38.36018 35128 ft 480 kts 209°
2026-05-06 11:42 -15.17314 -38.39218 35132 ft 480 kts 209°
2026-05-06 11:43 -15.23238 -38.42439 35128 ft 480 kts 209°
2026-05-06 11:43 -15.29164 -38.45665 35131 ft 481 kts 209°
2026-05-06 11:44 -15.38025 -38.50489 35135 ft 480 kts 209°
2026-05-06 11:44 -15.43951 -38.53720 35142 ft 480 kts 209°
2026-05-06 11:45 -15.49869 -38.56949 35143 ft 480 kts 209°
2026-05-06 11:45 -15.55761 -38.60164 35143 ft 481 kts 209°
2026-05-06 11:46 -15.61695 -38.63403 35137 ft 481 kts 209°
2026-05-06 11:46 -15.67627 -38.66646 35140 ft 481 kts 209°
2026-05-06 11:47 -15.73552 -38.69887 35142 ft 481 kts 209°
2026-05-06 11:47 -15.79442 -38.73110 35148 ft 481 kts 209°
2026-05-06 11:48 -15.85378 -38.76360 35150 ft 481 kts 209°
2026-05-06 11:48 -15.91302 -38.79605 35148 ft 481 kts 209°
2026-05-06 11:49 -15.97191 -38.82839 35143 ft 481 kts 209°
2026-05-06 11:49 -16.03106 -38.86083 35152 ft 481 kts 209°
2026-05-06 11:50 -16.09018 -38.89329 35157 ft 480 kts 209°
2026-05-06 11:50 -16.14931 -38.92580 35157 ft 480 kts 209°
2026-05-06 11:51 -16.20841 -38.95831 35157 ft 480 kts 209°
2026-05-06 11:51 -16.26715 -38.99025 35156 ft 479 kts 208°
2026-05-06 11:52 -16.32665 -39.02160 35157 ft 479 kts 208°
2026-05-06 11:52 -16.38615 -39.05299 35156 ft 479 kts 208°
2026-05-06 11:53 -16.44556 -39.08454 35159 ft 479 kts 208°
2026-05-06 11:53 -16.50448 -39.11720 35155 ft 479 kts 210°
2026-05-06 11:54 -16.56265 -39.15015 35157 ft 478 kts 210°
2026-05-06 11:54 -16.62127 -39.18326 35158 ft 479 kts 209°
2026-05-06 11:55 -16.67996 -39.21630 35157 ft 479 kts 209°
2026-05-06 11:55 -16.73870 -39.24932 35157 ft 479 kts 209°
2026-05-06 11:56 -16.79714 -39.28226 35158 ft 479 kts 209°
2026-05-06 11:56 -16.85547 -39.31513 35157 ft 479 kts 209°
2026-05-06 11:57 -16.91444 -39.34838 35156 ft 478 kts 209°
2026-05-06 11:57 -16.97266 -39.38124 35156 ft 478 kts 209°
2026-05-06 11:58 -17.03129 -39.41434 35157 ft 478 kts 209°
2026-05-06 11:58 -17.08990 -39.44748 35157 ft 478 kts 209°
2026-05-06 11:59 -17.14860 -39.48063 35160 ft 478 kts 209°
2026-05-06 11:59 -17.20720 -39.51377 35167 ft 479 kts 209°
2026-05-06 12:00 -17.26333 -39.54558 35165 ft 479 kts 209°
2026-05-06 12:00 -17.32188 -39.57875 35167 ft 478 kts 209°
2026-05-06 12:01 -17.38035 -39.61190 35168 ft 478 kts 209°
2026-05-06 12:01 -17.43896 -39.64517 35165 ft 479 kts 209°
2026-05-06 12:02 -17.49750 -39.67842 35167 ft 479 kts 209°
2026-05-06 12:02 -17.55610 -39.71172 35166 ft 478 kts 209°
2026-05-06 12:03 -17.61474 -39.74508 35167 ft 478 kts 209°
2026-05-06 12:03 -17.67323 -39.77837 35166 ft 478 kts 209°
2026-05-06 12:04 -17.73150 -39.81156 35170 ft 478 kts 209°
2026-05-06 12:04 -17.78998 -39.84490 35174 ft 478 kts 209°
2026-05-06 12:05 -17.84821 -39.87812 35176 ft 478 kts 209°
2026-05-06 12:05 -17.90675 -39.91153 35176 ft 478 kts 209°
2026-05-06 12:06 -17.96498 -39.94483 35173 ft 478 kts 209°
2026-05-06 12:06 -18.02342 -39.97822 35177 ft 478 kts 209°
2026-05-06 12:07 -18.07215 -40.00588 35183 ft 478 kts 209°
2026-05-06 12:07 -18.13076 -40.03907 35183 ft 478 kts 209°
2026-05-06 12:08 -18.18934 -40.07230 35186 ft 478 kts 209°
2026-05-06 12:08 -18.24788 -40.10560 35183 ft 478 kts 209°
2026-05-06 12:09 -18.30618 -40.13876 35185 ft 478 kts 209°
2026-05-06 12:09 -18.36471 -40.17207 35184 ft 477 kts 209°
2026-05-06 12:10 -18.42320 -40.20540 35185 ft 477 kts 209°
2026-05-06 12:10 -18.48136 -40.23854 35182 ft 477 kts 209°
2026-05-06 12:11 -18.53988 -40.27192 35187 ft 477 kts 209°
2026-05-06 12:11 -18.59800 -40.30512 35198 ft 476 kts 209°
2026-05-06 12:12 -18.65634 -40.33848 35195 ft 476 kts 209°
2026-05-06 12:12 -18.71431 -40.37164 35195 ft 475 kts 209°
2026-05-06 12:13 -18.77250 -40.40493 35203 ft 474 kts 209°
2026-05-06 12:13 -18.83029 -40.43806 35204 ft 474 kts 209°
2026-05-06 12:14 -18.88840 -40.47138 35203 ft 474 kts 209°
2026-05-06 12:14 -18.94633 -40.50462 35207 ft 474 kts 208°
2026-05-06 12:15 -19.00427 -40.53791 35213 ft 473 kts 208°
2026-05-06 12:15 -19.06191 -40.57102 35211 ft 474 kts 208°
2026-05-06 12:16 -19.11993 -40.60438 35213 ft 474 kts 208°
2026-05-06 12:16 -19.17761 -40.63761 35211 ft 474 kts 208°
2026-05-06 12:17 -19.23561 -40.67104 35214 ft 474 kts 208°
2026-05-06 12:17 -19.29356 -40.70444 35211 ft 474 kts 208°
2026-05-06 12:18 -19.35124 -40.73770 35212 ft 474 kts 208°
2026-05-06 12:18 -19.40921 -40.77118 35220 ft 473 kts 208°
2026-05-06 12:19 -19.46664 -40.80439 35226 ft 473 kts 208°
2026-05-06 12:19 -19.52444 -40.83783 35219 ft 473 kts 208°
2026-05-06 12:20 -19.58231 -40.87133 35212 ft 473 kts 208°
2026-05-06 12:20 -19.64029 -40.90499 35212 ft 473 kts 208°
2026-05-06 12:21 -19.69769 -40.93836 35213 ft 473 kts 208°
2026-05-06 12:21 -19.75537 -40.97191 35211 ft 473 kts 208°
2026-05-06 12:22 -19.81307 -41.00553 35213 ft 472 kts 208°
2026-05-06 12:22 -19.87092 -41.03925 35211 ft 473 kts 208°
2026-05-06 12:23 -19.92822 -41.07285 35212 ft 472 kts 209°
2026-05-06 12:23 -19.98586 -41.10676 35215 ft 472 kts 209°
2026-05-06 12:24 -20.04301 -41.14039 35224 ft 472 kts 209°
2026-05-06 12:24 -20.10055 -41.17425 35221 ft 472 kts 209°
2026-05-06 12:25 -20.15803 -41.20812 35220 ft 472 kts 209°
2026-05-06 12:25 -20.21523 -41.24183 35220 ft 471 kts 209°
2026-05-06 12:26 -20.27273 -41.27574 35221 ft 471 kts 209°
2026-05-06 12:26 -20.33009 -41.30960 35222 ft 471 kts 209°
2026-05-06 12:27 -20.38744 -41.34350 35220 ft 471 kts 209°
2026-05-06 12:27 -20.44445 -41.37724 35220 ft 471 kts 209°
2026-05-06 12:28 -20.50180 -41.41118 35221 ft 471 kts 209°
2026-05-06 12:28 -20.55931 -41.44499 35221 ft 471 kts 208°
2026-05-06 12:29 -20.61669 -41.47867 35228 ft 471 kts 208°
2026-05-06 12:29 -20.67390 -41.51226 35219 ft 473 kts 208°
2026-05-06 12:30 -20.73151 -41.54618 35219 ft 472 kts 208°
2026-05-06 12:30 -20.78911 -41.58015 35221 ft 471 kts 208°
2026-05-06 12:31 -20.84652 -41.61400 35216 ft 470 kts 208°
2026-05-06 12:31 -20.90352 -41.64767 35218 ft 470 kts 208°
2026-05-06 12:32 -20.96083 -41.68152 35209 ft 470 kts 208°
2026-05-06 12:32 -21.01806 -41.71537 35214 ft 470 kts 209°
2026-05-06 12:33 -21.07527 -41.74926 35211 ft 470 kts 209°
2026-05-06 12:33 -21.13226 -41.78302 35213 ft 470 kts 209°
2026-05-06 12:34 -21.18952 -41.81697 35214 ft 470 kts 209°
2026-05-06 12:34 -21.24682 -41.85097 35210 ft 470 kts 209°
2026-05-06 12:35 -21.30421 -41.88504 35218 ft 471 kts 209°
2026-05-06 12:35 -21.36117 -41.91891 35230 ft 471 kts 209°
2026-05-06 12:36 -21.41857 -41.95309 35234 ft 470 kts 209°
2026-05-06 12:36 -21.47562 -41.98708 35229 ft 470 kts 209°
2026-05-06 12:37 -21.53291 -42.02122 35233 ft 470 kts 209°
2026-05-06 12:37 -21.59018 -42.05539 35230 ft 470 kts 209°
2026-05-06 12:38 -21.64742 -42.08960 35231 ft 470 kts 209°
2026-05-06 12:38 -21.70419 -42.12354 35233 ft 470 kts 209°
2026-05-06 12:39 -21.76147 -42.15785 35229 ft 469 kts 209°
2026-05-06 12:39 -21.81859 -42.19208 35228 ft 469 kts 209°
2026-05-06 12:40 -21.87726 -42.22215 35227 ft 468 kts 202°
2026-05-06 12:40 -21.93780 -42.24831 35220 ft 469 kts 202°
2026-05-06 12:41 -21.99838 -42.27464 35223 ft 469 kts 202°
2026-05-06 12:41 -22.05860 -42.30113 35221 ft 469 kts 202°
2026-05-06 12:42 -22.11902 -42.32783 35223 ft 469 kts 202°
2026-05-06 12:42 -22.17954 -42.35459 35221 ft 470 kts 202°
2026-05-06 12:43 -22.24017 -42.38141 35221 ft 470 kts 202°
2026-05-06 12:43 -22.30040 -42.40807 35222 ft 470 kts 202°
2026-05-06 12:44 -22.36098 -42.43491 35225 ft 470 kts 202°
2026-05-06 12:44 -22.42151 -42.46172 35213 ft 470 kts 202°
2026-05-06 12:45 -22.48207 -42.48861 35215 ft 470 kts 202°
2026-05-06 12:46 -22.57251 -42.52885 35211 ft 470 kts 202°
2026-05-06 12:46 -22.63297 -42.55576 35214 ft 469 kts 202°
2026-05-06 12:47 -22.69331 -42.58264 35209 ft 469 kts 202°
2026-05-06 12:47 -22.75372 -42.60957 35214 ft 469 kts 202°
2026-05-06 12:48 -22.81006 -42.64429 35203 ft 467 kts 220°
2026-05-06 12:48 -22.85299 -42.69647 35203 ft 469 kts 236°
2026-05-06 12:49 -22.88760 -42.75655 35204 ft 469 kts 237°
2026-05-06 12:49 -22.92271 -42.81636 35194 ft 470 kts 236°
2026-05-06 12:50 -22.95846 -42.87563 35191 ft 469 kts 233°
2026-05-06 12:50 -23.00084 -42.92950 35191 ft 468 kts 225°
2026-05-06 12:51 -23.04651 -42.97932 35198 ft 468 kts 225°
2026-05-06 12:51 -23.09240 -43.02979 35186 ft 468 kts 225°
2026-05-06 12:52 -23.13781 -43.08018 35184 ft 468 kts 225°
2026-05-06 12:52 -23.18345 -43.13100 35184 ft 468 kts 225°
2026-05-06 12:53 -23.22125 -43.17312 35186 ft 468 kts 225°
2026-05-06 12:53 -23.26668 -43.22377 35196 ft 467 kts 225°
2026-05-06 12:54 -23.31184 -43.27416 35203 ft 467 kts 225°
2026-05-06 12:54 -23.35665 -43.32539 35206 ft 467 kts 226°
2026-05-06 12:55 -23.40135 -43.37703 35204 ft 468 kts 226°
2026-05-06 12:55 -23.44606 -43.42855 35210 ft 467 kts 226°
2026-05-06 12:56 -23.49046 -43.47967 35212 ft 467 kts 226°
2026-05-06 12:56 -23.53558 -43.53084 35212 ft 467 kts 225°
2026-05-06 12:57 -23.58070 -43.58180 35211 ft 467 kts 225°
2026-05-06 12:57 -23.62583 -43.63300 35216 ft 467 kts 225°
2026-05-06 12:58 -23.67143 -43.68309 35209 ft 467 kts 224°
2026-05-06 12:58 -23.71802 -43.73251 35213 ft 467 kts 224°
2026-05-06 12:59 -23.76455 -43.78214 35221 ft 467 kts 224°
2026-05-06 12:59 -23.81081 -43.83184 35221 ft 467 kts 224°
2026-05-06 13:00 -23.85705 -43.88166 35222 ft 467 kts 224°
2026-05-06 13:00 -23.90307 -43.93126 35220 ft 467 kts 224°
2026-05-06 13:01 -23.94930 -43.98116 35222 ft 466 kts 224°
2026-05-06 13:01 -23.99546 -44.03101 35227 ft 466 kts 224°
2026-05-06 13:02 -24.04166 -44.08096 35233 ft 466 kts 224°
2026-05-06 13:02 -24.08751 -44.13056 35229 ft 466 kts 224°
2026-05-06 13:03 -24.13371 -44.18057 35228 ft 466 kts 224°
2026-05-06 13:03 -24.17982 -44.23057 35231 ft 466 kts 224°
2026-05-06 13:04 -24.22599 -44.28073 35229 ft 466 kts 224°
2026-05-06 13:04 -24.27181 -44.33052 35232 ft 466 kts 224°
2026-05-06 13:05 -24.31789 -44.38067 35230 ft 466 kts 224°
2026-05-06 13:05 -24.36395 -44.43080 35230 ft 466 kts 224°
2026-05-06 13:06 -24.40993 -44.48092 35231 ft 466 kts 224°
2026-05-06 13:06 -24.45591 -44.53115 35241 ft 466 kts 224°
2026-05-06 13:07 -24.50162 -44.58110 35240 ft 466 kts 225°
2026-05-06 13:07 -24.54718 -44.63178 35239 ft 465 kts 225°
2026-05-06 13:08 -24.59248 -44.68257 35239 ft 465 kts 225°
2026-05-06 13:08 -24.63786 -44.73346 35189 ft 466 kts 225°
2026-05-06 13:09 -24.68297 -44.78398 35182 ft 465 kts 225°
2026-05-06 13:09 -24.72835 -44.83484 35175 ft 465 kts 225°
2026-05-06 13:10 -24.77365 -44.88570 35175 ft 465 kts 225°
2026-05-06 13:10 -24.81896 -44.93658 35175 ft 464 kts 225°
2026-05-06 13:11 -24.86377 -44.98699 35176 ft 464 kts 225°
2026-05-06 13:11 -24.90891 -45.03786 35175 ft 464 kts 225°
2026-05-06 13:12 -24.95403 -45.08872 35175 ft 463 kts 225°
2026-05-06 13:12 -24.99893 -45.13939 35176 ft 463 kts 225°
2026-05-06 13:13 -25.04405 -45.19037 35176 ft 463 kts 225°
2026-05-06 13:13 -25.08911 -45.24131 35181 ft 463 kts 225°
2026-05-06 13:14 -25.13381 -45.29196 35191 ft 462 kts 225°
2026-05-06 13:14 -25.17874 -45.34289 35205 ft 462 kts 225°
2026-05-06 13:15 -25.22373 -45.39393 35205 ft 463 kts 225°
2026-05-06 13:15 -25.26841 -45.44472 35204 ft 463 kts 225°
2026-05-06 13:16 -25.31334 -45.49584 35201 ft 463 kts 225°
2026-05-06 13:16 -25.35821 -45.54696 35203 ft 463 kts 225°
2026-05-06 13:17 -25.40313 -45.59817 35202 ft 463 kts 226°
2026-05-06 13:17 -25.44800 -45.64937 35202 ft 463 kts 226°
2026-05-06 13:18 -25.49278 -45.70056 35203 ft 463 kts 226°
2026-05-06 13:18 -25.53734 -45.75152 35200 ft 462 kts 226°
2026-05-06 13:19 -25.58208 -45.80278 35203 ft 462 kts 226°
2026-05-06 13:19 -25.62677 -45.85404 35203 ft 461 kts 226°
2026-05-06 13:20 -25.67140 -45.90528 35205 ft 461 kts 226°
2026-05-06 13:20 -25.71571 -45.95617 35213 ft 461 kts 226°
2026-05-06 13:21 -25.76026 -46.00746 35212 ft 461 kts 226°
2026-05-06 13:21 -25.80475 -46.05873 35212 ft 461 kts 226°
2026-05-06 13:22 -25.84932 -46.11014 35212 ft 461 kts 226°
2026-05-06 13:22 -25.89352 -46.16120 35212 ft 461 kts 226°
2026-05-06 13:23 -25.93799 -46.21264 35213 ft 461 kts 226°
2026-05-06 13:23 -25.98254 -46.26420 35212 ft 461 kts 226°
2026-05-06 13:24 -26.02702 -46.31575 35212 ft 461 kts 226°
2026-05-06 13:24 -26.07145 -46.36729 35221 ft 462 kts 226°
2026-05-06 13:25 -26.11586 -46.41891 35220 ft 462 kts 226°
2026-05-06 13:25 -26.16002 -46.47026 35221 ft 461 kts 226°
2026-05-06 13:26 -26.20441 -46.52199 35221 ft 461 kts 226°
2026-05-06 13:26 -26.24890 -46.57385 35221 ft 461 kts 226°
2026-05-06 13:27 -26.29327 -46.62565 35189 ft 462 kts 226°
2026-05-06 13:27 -26.33726 -46.67706 35185 ft 461 kts 226°
2026-05-06 13:28 -26.38161 -46.72895 35185 ft 461 kts 226°
2026-05-06 13:28 -26.42587 -46.78074 35184 ft 461 kts 226°
2026-05-06 13:29 -26.47006 -46.83258 35185 ft 461 kts 226°
2026-05-06 13:29 -26.51400 -46.88419 35184 ft 460 kts 226°
2026-05-06 13:30 -26.55821 -46.93614 35185 ft 460 kts 226°
2026-05-06 13:30 -26.60233 -46.98807 35184 ft 460 kts 226°
2026-05-06 13:31 -26.64600 -47.03981 35184 ft 460 kts 226°
2026-05-06 13:31 -26.68989 -47.09197 35185 ft 460 kts 226°
2026-05-06 13:32 -26.73382 -47.14415 35184 ft 460 kts 227°
2026-05-06 13:32 -26.77763 -47.19637 35185 ft 460 kts 227°
2026-05-06 13:33 -26.82128 -47.24844 35184 ft 460 kts 227°
2026-05-06 13:33 -26.86503 -47.30069 35184 ft 460 kts 227°
2026-05-06 13:34 -26.90875 -47.35294 35185 ft 459 kts 227°
2026-05-06 13:34 -26.95247 -47.40532 35177 ft 460 kts 227°
2026-05-06 13:35 -26.99610 -47.45773 35176 ft 460 kts 227°
2026-05-06 13:35 -27.03974 -47.51016 35175 ft 460 kts 227°
2026-05-06 13:36 -27.08341 -47.56267 35176 ft 460 kts 227°
2026-05-06 13:36 -27.12680 -47.61493 35175 ft 459 kts 227°
2026-05-06 13:37 -27.17044 -47.66758 35175 ft 459 kts 227°
2026-05-06 13:37 -27.21378 -47.71989 35176 ft 459 kts 227°
2026-05-06 13:38 -27.25731 -47.77253 35174 ft 459 kts 227°
2026-05-06 13:38 -27.30085 -47.82525 35166 ft 459 kts 227°
2026-05-06 13:39 -27.34430 -47.87795 35167 ft 459 kts 227°
2026-05-06 13:39 -27.38747 -47.93030 35166 ft 459 kts 227°
2026-05-06 13:40 -27.43076 -47.98317 35166 ft 459 kts 227°
2026-05-06 13:40 -27.46690 -48.02755 35167 ft 459 kts 227°
2026-05-06 13:41 -27.50971 -48.08020 35164 ft 458 kts 227°
2026-05-06 13:41 -27.55289 -48.13331 35167 ft 458 kts 227°
2026-05-06 13:42 -27.59568 -48.18595 35165 ft 458 kts 227°
2026-05-06 13:42 -27.63870 -48.23899 35161 ft 458 kts 227°
2026-05-06 13:43 -27.68175 -48.29213 35156 ft 458 kts 227°
2026-05-06 13:43 -27.72472 -48.34521 35157 ft 457 kts 227°
2026-05-06 13:44 -27.76767 -48.39833 35157 ft 457 kts 227°
2026-05-06 13:44 -27.81030 -48.45115 35157 ft 457 kts 228°
2026-05-06 13:45 -27.85325 -48.50443 35157 ft 457 kts 228°
2026-05-06 13:45 -27.91761 -48.58439 35157 ft 458 kts 228°
2026-05-06 13:46 -27.96016 -48.63735 35157 ft 457 kts 227°
2026-05-06 13:46 -28.00293 -48.69063 35161 ft 457 kts 228°
2026-05-06 13:47 -28.04570 -48.74401 35153 ft 457 kts 228°
2026-05-06 13:47 -28.08842 -48.79740 35162 ft 457 kts 228°
2026-05-06 13:48 -28.13114 -48.85082 35167 ft 456 kts 228°
2026-05-06 13:48 -28.17344 -48.90381 35174 ft 456 kts 228°
2026-05-06 13:49 -28.21601 -48.95720 35173 ft 456 kts 228°
2026-05-06 13:49 -28.25858 -49.01060 35175 ft 456 kts 228°
2026-05-06 13:50 -28.30119 -49.06389 35172 ft 455 kts 227°
2026-05-06 13:50 -28.34366 -49.11647 35171 ft 455 kts 227°
2026-05-06 13:51 -28.38640 -49.16946 35185 ft 454 kts 227°
2026-05-06 13:51 -28.42905 -49.22252 35189 ft 454 kts 227°
2026-05-06 13:52 -28.47167 -49.27559 35185 ft 454 kts 227°
2026-05-06 13:52 -28.51422 -49.32859 35183 ft 454 kts 227°
2026-05-06 13:53 -28.55673 -49.38168 35185 ft 454 kts 227°
2026-05-06 13:53 -28.59895 -49.43447 35197 ft 454 kts 227°
2026-05-06 13:54 -28.64145 -49.48765 35192 ft 453 kts 227°
2026-05-06 13:54 -28.68391 -49.54084 35192 ft 453 kts 227°
2026-05-06 13:55 -28.72631 -49.59405 35205 ft 453 kts 228°
2026-05-06 13:55 -28.76865 -49.64723 35204 ft 453 kts 228°
2026-05-06 13:56 -28.81076 -49.70024 35200 ft 453 kts 228°
2026-05-06 13:56 -28.85305 -49.75352 35212 ft 453 kts 228°
2026-05-06 13:57 -28.89536 -49.80690 35210 ft 453 kts 228°
2026-05-06 13:57 -28.93839 -49.85954 35213 ft 453 kts 226°
2026-05-06 13:58 -28.98214 -49.91129 35217 ft 453 kts 226°
2026-05-06 13:58 -29.02558 -49.96289 35215 ft 452 kts 226°
2026-05-06 13:59 -29.06907 -50.01484 35225 ft 452 kts 226°
2026-05-06 13:59 -29.11248 -50.06692 35222 ft 451 kts 226°
2026-05-06 14:00 -29.15583 -50.11898 35222 ft 451 kts 227°
2026-05-06 14:00 -29.19886 -50.17071 35229 ft 450 kts 227°
2026-05-06 14:01 -29.24206 -50.22274 35182 ft 451 kts 227°
2026-05-06 14:01 -29.28530 -50.27484 35178 ft 450 kts 227°
2026-05-06 14:02 -29.32822 -50.32664 35175 ft 450 kts 227°
2026-05-06 14:02 -29.37130 -50.37872 35174 ft 450 kts 227°
2026-05-06 14:03 -29.41429 -50.43078 35172 ft 450 kts 227°
2026-05-06 14:03 -29.45733 -50.48292 35177 ft 449 kts 227°
2026-05-06 14:04 -29.50011 -50.53482 35179 ft 450 kts 227°
2026-05-06 14:04 -29.54305 -50.58732 35173 ft 450 kts 228°
2026-05-06 14:05 -29.58519 -50.64075 35158 ft 451 kts 228°
2026-05-06 14:05 -29.62725 -50.69437 35159 ft 451 kts 228°
2026-05-06 14:06 -29.66908 -50.74758 35150 ft 451 kts 228°
2026-05-06 14:06 -29.71121 -50.80117 35136 ft 451 kts 228°
2026-05-06 14:07 -29.75334 -50.85483 35128 ft 451 kts 228°
2026-05-06 14:07 -29.79543 -50.90849 35120 ft 451 kts 228°
2026-05-06 14:08 -29.83730 -50.96189 35108 ft 451 kts 228°
2026-05-06 14:08 -29.87914 -51.01540 35096 ft 452 kts 228°
2026-05-06 14:09 -29.92120 -51.06924 35078 ft 451 kts 228°
2026-05-06 14:09 -29.96326 -51.12311 35078 ft 451 kts 227°
2026-05-06 14:10 -30.01003 -51.17133 35074 ft 451 kts 218°
2026-05-06 14:10 -30.06269 -51.21041 35097 ft 453 kts 212°
2026-05-06 14:11 -30.11757 -51.24632 35101 ft 454 kts 211°
2026-05-06 14:11 -30.17259 -51.28245 35101 ft 454 kts 212°
2026-05-06 14:12 -30.22742 -51.31882 35103 ft 454 kts 212°
2026-05-06 14:12 -30.28197 -51.35516 35103 ft 454 kts 212°
2026-05-06 14:13 -30.33672 -51.39168 35101 ft 454 kts 212°
2026-05-06 14:13 -30.39157 -51.42834 35103 ft 454 kts 212°
2026-05-06 14:14 -30.44599 -51.46474 35087 ft 455 kts 212°
2026-05-06 14:14 -30.50093 -51.50151 35078 ft 455 kts 212°
2026-05-06 14:15 -30.55591 -51.53823 35072 ft 455 kts 211°
2026-05-06 14:15 -30.61107 -51.57450 35079 ft 455 kts 212°
2026-05-06 14:16 -30.66553 -51.61116 35074 ft 455 kts 212°
2026-05-06 14:16 -30.72041 -51.64812 35069 ft 455 kts 212°
2026-05-06 14:17 -30.77525 -51.68497 35071 ft 454 kts 212°
2026-05-06 14:17 -30.82967 -51.72158 35080 ft 454 kts 212°
2026-05-06 14:18 -30.88440 -51.75847 35074 ft 454 kts 212°
2026-05-06 14:18 -30.93910 -51.79542 35081 ft 454 kts 212°
2026-05-06 14:19 -30.99370 -51.83232 35075 ft 453 kts 212°
2026-05-06 14:19 -31.04830 -51.86926 35072 ft 453 kts 212°
2026-05-06 14:20 -31.10255 -51.90606 35073 ft 453 kts 212°
2026-05-06 14:20 -31.15715 -51.94310 35076 ft 453 kts 212°
2026-05-06 14:21 -31.21168 -51.98015 35072 ft 453 kts 213°
2026-05-06 14:21 -31.26581 -52.01710 35074 ft 452 kts 213°
2026-05-06 14:22 -31.32031 -52.05421 35078 ft 452 kts 213°
2026-05-06 14:22 -31.37467 -52.09126 35071 ft 452 kts 213°
2026-05-06 14:23 -31.42903 -52.12841 35081 ft 452 kts 213°
2026-05-06 14:23 -31.48339 -52.16559 35079 ft 452 kts 213°
2026-05-06 14:24 -31.53767 -52.20280 35069 ft 452 kts 213°
2026-05-06 14:24 -31.59202 -52.24013 35072 ft 452 kts 213°
2026-05-06 14:25 -31.64628 -52.27740 35336 ft 455 kts 213°
2026-05-06 14:25 -31.67354 -52.29615 35762 ft 453 kts 213°
2026-05-06 14:25 -31.70064 -52.31478 36168 ft 450 kts 213°
2026-05-06 14:26 -31.72758 -52.33342 36523 ft 449 kts 213°
2026-05-06 14:26 -31.75413 -52.35262 36851 ft 447 kts 214°
2026-05-06 14:26 -31.77151 -52.36553 37105 ft 445 kts 215°
2026-05-06 14:26 -31.79762 -52.38512 37049 ft 444 kts 215°
2026-05-06 14:27 -31.84921 -52.42394 37070 ft 437 kts 215°
2026-05-06 14:27 -31.90061 -52.46242 37077 ft 437 kts 215°
2026-05-06 14:28 -31.95204 -52.50083 37075 ft 438 kts 215°
2026-05-06 14:28 -32.00327 -52.53911 37076 ft 439 kts 215°
2026-05-06 14:29 -32.05491 -52.57773 37074 ft 440 kts 215°
2026-05-06 14:29 -32.10662 -52.61644 37075 ft 440 kts 215°
2026-05-06 14:30 -32.15849 -52.65534 37073 ft 440 kts 215°
2026-05-06 14:30 -32.20999 -52.69398 37076 ft 441 kts 215°
2026-05-06 14:31 -32.26182 -52.73298 37074 ft 441 kts 215°
2026-05-06 14:31 -32.31356 -52.77195 37075 ft 441 kts 215°
2026-05-06 14:32 -32.36507 -52.81079 37066 ft 441 kts 215°
2026-05-06 14:32 -32.41685 -52.84992 37062 ft 441 kts 215°
2026-05-06 14:33 -32.46853 -52.88898 37065 ft 441 kts 215°
2026-05-06 14:33 -32.52024 -52.92812 37066 ft 440 kts 215°
2026-05-06 14:34 -32.57155 -52.96704 37066 ft 440 kts 215°
2026-05-06 14:34 -32.62313 -53.00620 37064 ft 440 kts 215°
2026-05-06 14:35 -32.67469 -53.04542 37061 ft 440 kts 215°
2026-05-06 14:35 -32.72462 -53.08726 37054 ft 437 kts 222°
2026-05-06 14:36 -32.76759 -53.13797 37054 ft 435 kts 230°
2026-05-06 14:36 -32.80755 -53.19215 37056 ft 436 kts 230°
2026-05-06 14:37 -32.84732 -53.24609 37056 ft 436 kts 230°
2026-05-06 14:37 -32.88739 -53.30029 37058 ft 436 kts 230°
2026-05-06 14:38 -32.92754 -53.35454 37056 ft 436 kts 230°
2026-05-06 14:38 -32.96762 -53.40870 37058 ft 436 kts 230°
2026-05-06 14:39 -33.00745 -53.46264 37056 ft 436 kts 230°
2026-05-06 14:39 -33.04757 -53.51701 37048 ft 436 kts 230°
2026-05-06 14:40 -33.08762 -53.57139 37046 ft 436 kts 230°
2026-05-06 14:40 -33.12770 -53.62584 37045 ft 436 kts 230°
2026-05-06 14:41 -33.16771 -53.68038 37048 ft 436 kts 230°
2026-05-06 14:41 -33.20741 -53.73465 37049 ft 436 kts 230°
2026-05-06 14:42 -33.24747 -53.78937 37048 ft 437 kts 230°
2026-05-06 14:42 -33.28758 -53.84421 37048 ft 437 kts 231°
2026-05-06 14:43 -33.32736 -53.89871 37039 ft 437 kts 231°
2026-05-06 14:43 -33.36737 -53.95362 37044 ft 437 kts 231°
2026-05-06 14:44 -33.40742 -54.00867 37039 ft 438 kts 231°
2026-05-06 14:45 -33.46733 -54.09120 37035 ft 438 kts 231°
2026-05-06 14:45 -33.50703 -54.14595 37042 ft 438 kts 231°
2026-05-06 14:46 -33.54697 -54.20114 37036 ft 438 kts 231°
2026-05-06 14:46 -33.58690 -54.25641 37027 ft 438 kts 231°
2026-05-06 14:47 -33.62681 -54.31174 37012 ft 438 kts 231°
2026-05-06 14:47 -33.66670 -54.36713 37011 ft 438 kts 231°
2026-05-06 14:48 -33.70636 -54.42229 36997 ft 438 kts 231°
2026-05-06 14:48 -33.74626 -54.47785 37001 ft 438 kts 231°
2026-05-06 14:49 -33.78586 -54.53308 37001 ft 438 kts 231°
2026-05-06 14:49 -33.82561 -54.58860 36999 ft 438 kts 231°
2026-05-06 14:50 -33.86533 -54.64422 37000 ft 438 kts 231°
2026-05-06 14:50 -33.90505 -54.69984 36992 ft 438 kts 231°
2026-05-06 14:51 -33.94449 -54.75517 36991 ft 438 kts 231°
2026-05-06 14:51 -33.98411 -54.81088 36990 ft 437 kts 231°
2026-05-06 14:52 -34.02376 -54.86671 36994 ft 437 kts 231°
2026-05-06 14:52 -34.06325 -54.92241 36990 ft 437 kts 232°
2026-05-06 14:53 -34.10271 -54.97814 36989 ft 437 kts 232°
2026-05-06 14:53 -34.14217 -55.03396 36988 ft 436 kts 232°
2026-05-06 14:54 -34.18131 -55.08944 36991 ft 436 kts 232°
2026-05-06 14:54 -34.22068 -55.14528 36990 ft 436 kts 232°
2026-05-06 14:55 -34.26004 -55.20123 36991 ft 436 kts 232°
2026-05-06 14:55 -34.29916 -55.25693 36988 ft 436 kts 232°
2026-05-06 14:56 -34.33838 -55.31285 36990 ft 436 kts 232°
2026-05-06 14:56 -34.37759 -55.36886 36992 ft 436 kts 232°
2026-05-06 14:57 -34.41662 -55.42459 36990 ft 436 kts 232°
2026-05-06 14:57 -34.45581 -55.48071 36991 ft 436 kts 232°
2026-05-06 14:58 -34.49493 -55.53682 36992 ft 436 kts 232°
2026-05-06 14:58 -34.53401 -55.59298 36991 ft 436 kts 232°
2026-05-06 14:59 -34.57311 -55.64922 36991 ft 435 kts 232°
2026-05-06 14:59 -34.61212 -55.70545 36994 ft 435 kts 232°
2026-05-06 15:00 -34.65113 -55.76176 36988 ft 436 kts 232°
2026-05-06 15:00 -34.68994 -55.81788 36990 ft 436 kts 232°
2026-05-06 15:01 -34.72899 -55.87442 36993 ft 436 kts 232°
2026-05-06 15:01 -34.76770 -55.93062 36991 ft 436 kts 232°
2026-05-06 15:02 -34.80700 -55.98685 36988 ft 436 kts 228°
2026-05-06 15:02 -34.85520 -56.03251 36997 ft 442 kts 215°
2026-05-06 15:03 -34.91148 -56.06417 36999 ft 448 kts 205°
2026-05-06 15:03 -34.96996 -56.09103 36990 ft 449 kts 206°
2026-05-06 15:04 -35.02788 -56.11860 36985 ft 449 kts 206°
2026-05-06 15:04 -35.08602 -56.14673 36982 ft 449 kts 206°
2026-05-06 15:05 -35.14411 -56.17498 36980 ft 449 kts 206°
2026-05-06 15:05 -35.20212 -56.20319 36984 ft 449 kts 206°
2026-05-06 15:06 -35.26010 -56.23142 36977 ft 448 kts 206°
2026-05-06 15:06 -35.31778 -56.25950 36983 ft 448 kts 206°
2026-05-06 15:07 -35.37594 -56.28751 36968 ft 448 kts 206°
2026-05-06 15:07 -35.43366 -56.31530 36963 ft 448 kts 206°
2026-05-06 15:08 -35.49171 -56.34332 36963 ft 448 kts 206°
2026-05-06 15:08 -35.54975 -56.37141 36963 ft 448 kts 206°
2026-05-06 15:09 -35.60773 -56.39954 36963 ft 447 kts 206°
2026-05-06 15:09 -35.66575 -56.42770 36964 ft 447 kts 206°
2026-05-06 15:10 -35.72328 -56.45568 36962 ft 447 kts 206°
2026-05-06 15:10 -35.78115 -56.48384 36964 ft 447 kts 206°
2026-05-06 15:11 -35.83901 -56.51206 36963 ft 447 kts 206°
2026-05-06 15:11 -35.89688 -56.54034 36963 ft 447 kts 206°
2026-05-06 15:12 -35.95469 -56.56864 36963 ft 447 kts 206°
2026-05-06 15:12 -36.01214 -56.59678 36963 ft 447 kts 206°
2026-05-06 15:13 -36.07010 -56.62522 36963 ft 447 kts 206°
2026-05-06 15:13 -36.11828 -56.64894 36962 ft 447 kts 207°
2026-05-06 15:14 -36.18554 -56.68205 36963 ft 447 kts 206°
2026-05-06 15:14 -36.24352 -56.71066 36962 ft 448 kts 207°
2026-05-06 15:15 -36.29176 -56.73449 36953 ft 449 kts 207°
2026-05-06 15:15 -36.34981 -56.76318 36956 ft 449 kts 207°
2026-05-06 15:16 -36.40801 -56.79204 36951 ft 450 kts 207°
2026-05-06 15:16 -36.46591 -56.82077 36944 ft 451 kts 207°
2026-05-06 15:17 -36.52425 -56.84975 36946 ft 451 kts 207°
2026-05-06 15:17 -36.58262 -56.87882 36944 ft 451 kts 207°
2026-05-06 15:18 -36.64099 -56.90795 36945 ft 451 kts 207°
2026-05-06 15:18 -36.69892 -56.93689 36945 ft 451 kts 207°
2026-05-06 15:19 -36.75721 -56.96609 36945 ft 451 kts 207°
2026-05-06 15:19 -36.81530 -56.99578 36944 ft 450 kts 207°
2026-05-06 15:20 -36.87344 -57.02567 36944 ft 450 kts 207°
2026-05-06 15:20 -36.93096 -57.05528 36944 ft 450 kts 207°
2026-05-06 15:21 -36.98909 -57.08521 36946 ft 450 kts 207°
2026-05-06 15:21 -37.04697 -57.11505 36944 ft 450 kts 207°
2026-05-06 15:22 -37.10462 -57.14481 36945 ft 450 kts 208°
2026-05-06 15:22 -37.16250 -57.17476 36944 ft 450 kts 208°
2026-05-06 15:23 -37.22041 -57.20477 36946 ft 450 kts 208°
2026-05-06 15:23 -37.27839 -57.23484 36942 ft 450 kts 208°
2026-05-06 15:24 -37.33623 -57.26491 36936 ft 449 kts 208°
2026-05-06 15:24 -37.39372 -57.29484 36936 ft 449 kts 208°
2026-05-06 15:25 -37.45151 -57.32498 36935 ft 449 kts 208°
2026-05-06 15:25 -37.50931 -57.35517 36936 ft 449 kts 208°
2026-05-06 15:26 -37.56670 -57.38520 36935 ft 449 kts 208°
2026-05-06 15:26 -37.62455 -57.41551 36936 ft 449 kts 208°
2026-05-06 15:27 -37.68232 -57.44584 36935 ft 449 kts 208°
2026-05-06 15:27 -37.73976 -57.47606 36935 ft 449 kts 208°
2026-05-06 15:28 -37.79753 -57.50651 36937 ft 449 kts 208°
2026-05-06 15:28 -37.85537 -57.53704 36936 ft 450 kts 208°
2026-05-06 15:29 -37.90943 -57.57384 36947 ft 432 kts 229°
2026-05-06 15:29 -37.92838 -57.60279 36944 ft 426 kts 241°
2026-05-06 15:29 -37.94203 -57.63597 36939 ft 425 kts 252°
2026-05-06 15:30 -37.95671 -57.70813 36937 ft 427 kts 258°
2026-05-06 15:30 -37.97000 -57.78170 36942 ft 430 kts 258°
2026-05-06 15:31 -37.98373 -57.85587 36936 ft 430 kts 258°
2026-05-06 15:31 -37.99756 -57.92895 36936 ft 429 kts 258°
2026-05-06 15:32 -38.01850 -58.03894 36930 ft 425 kts 258°
2026-05-06 15:32 -38.03230 -58.11183 36932 ft 423 kts 258°
2026-05-06 15:33 -38.04590 -58.18392 36937 ft 422 kts 258°
2026-05-06 15:33 -38.05951 -58.25635 36931 ft 421 kts 258°
2026-05-06 15:34 -38.07308 -58.32880 36917 ft 421 kts 258°
2026-05-06 15:34 -38.08655 -58.40114 36933 ft 421 kts 258°
2026-05-06 15:35 -38.10004 -58.47368 36918 ft 422 kts 258°
2026-05-06 15:35 -38.11345 -58.54601 36929 ft 423 kts 258°
2026-05-06 15:36 -38.12691 -58.61897 36922 ft 425 kts 259°
2026-05-06 15:36 -38.14035 -58.69212 36918 ft 425 kts 259°
2026-05-06 15:37 -38.15380 -58.76560 36922 ft 427 kts 259°
2026-05-06 15:37 -38.16723 -58.83920 36903 ft 427 kts 259°
2026-05-06 15:38 -38.18056 -58.91258 36911 ft 429 kts 259°
2026-05-06 15:38 -38.19396 -58.98659 36908 ft 430 kts 259°
2026-05-06 15:39 -38.20732 -59.06069 36916 ft 430 kts 259°
2026-05-06 15:39 -38.22068 -59.13499 36900 ft 431 kts 259°
2026-05-06 15:40 -38.23393 -59.20901 36895 ft 431 kts 259°
2026-05-06 15:40 -38.24719 -59.28343 36892 ft 431 kts 259°
2026-05-06 15:41 -38.26046 -59.35810 36886 ft 432 kts 259°
2026-05-06 15:41 -38.27359 -59.43232 36875 ft 432 kts 259°
2026-05-06 15:42 -38.28674 -59.50696 36881 ft 432 kts 259°
2026-05-06 15:42 -38.30000 -59.58154 36873 ft 430 kts 256°
2026-05-06 15:43 -38.31197 -59.61659 36870 ft 436 kts 240°
2026-05-06 15:43 -38.33172 -59.64633 36881 ft 444 kts 227°
2026-05-06 15:43 -38.38441 -59.68773 36870 ft 459 kts 204°
2026-05-06 15:44 -38.44574 -59.71173 36876 ft 462 kts 201°
2026-05-06 15:44 -38.50766 -59.73470 36873 ft 463 kts 201°
2026-05-06 15:45 -38.56954 -59.75863 36872 ft 464 kts 202°
2026-05-06 15:45 -38.63094 -59.78315 36871 ft 465 kts 202°
2026-05-06 15:46 -38.69267 -59.80809 36872 ft 465 kts 202°
2026-05-06 15:46 -38.75450 -59.83305 36867 ft 465 kts 202°
2026-05-06 15:47 -38.81628 -59.85799 36872 ft 466 kts 202°
2026-05-06 15:47 -38.87815 -59.88304 36870 ft 466 kts 202°
2026-05-06 15:48 -38.93968 -59.90798 36868 ft 466 kts 202°
2026-05-06 15:48 -39.00156 -59.93312 36869 ft 466 kts 202°
2026-05-06 15:49 -39.06354 -59.95835 36871 ft 466 kts 202°
2026-05-06 15:49 -39.12541 -59.98356 36870 ft 466 kts 202°
2026-05-06 15:50 -39.18703 -60.00875 36868 ft 467 kts 202°
2026-05-06 15:50 -39.24909 -60.03415 36870 ft 468 kts 202°
2026-05-06 15:51 -39.31126 -60.05963 36870 ft 469 kts 203°
2026-05-06 15:51 -39.37364 -60.08529 36871 ft 470 kts 203°
2026-05-06 15:52 -39.43558 -60.11078 36872 ft 471 kts 202°
2026-05-06 15:52 -39.49819 -60.13658 36871 ft 472 kts 203°
2026-05-06 15:53 -39.56078 -60.16243 36872 ft 472 kts 203°
2026-05-06 15:53 -39.62351 -60.18839 36871 ft 473 kts 203°
2026-05-06 15:54 -39.68598 -60.21431 36873 ft 474 kts 203°
2026-05-06 15:54 -39.74883 -60.24041 36871 ft 474 kts 203°
2026-05-06 15:55 -39.81164 -60.26654 36869 ft 473 kts 203°
2026-05-06 15:55 -39.87439 -60.29270 36870 ft 473 kts 203°
2026-05-06 15:56 -39.93702 -60.31887 36872 ft 473 kts 203°
2026-05-06 15:56 -39.99918 -60.34488 36870 ft 472 kts 203°
2026-05-06 15:57 -40.06173 -60.37113 36871 ft 471 kts 203°
2026-05-06 15:57 -40.12431 -60.39743 36871 ft 471 kts 203°
2026-05-06 15:58 -40.18672 -60.42373 36871 ft 471 kts 203°
2026-05-06 15:58 -40.24888 -60.44997 36870 ft 472 kts 203°
2026-05-06 15:59 -40.31140 -60.47640 36870 ft 472 kts 203°
2026-05-06 15:59 -40.37392 -60.50287 36871 ft 472 kts 203°
2026-05-06 16:00 -40.42594 -60.52496 36869 ft 472 kts 203°
2026-05-06 16:00 -40.48858 -60.55158 36862 ft 473 kts 203°
2026-05-06 16:01 -40.56189 -60.58099 36862 ft 474 kts 201°
2026-05-06 16:01 -40.61461 -60.60130 36862 ft 474 kts 201°
2026-05-06 16:02 -40.67806 -60.62586 36862 ft 474 kts 201°
2026-05-06 16:02 -40.74137 -60.65065 36861 ft 474 kts 201°
2026-05-06 16:03 -40.80439 -60.67549 36862 ft 474 kts 201°
2026-05-06 16:03 -40.86770 -60.70050 36860 ft 474 kts 201°
2026-05-06 16:04 -40.93100 -60.72556 36864 ft 474 kts 201°
2026-05-06 16:04 -40.99428 -60.75064 36872 ft 474 kts 201°
2026-05-06 16:05 -41.05714 -60.77558 36871 ft 474 kts 201°
2026-05-06 16:05 -41.12040 -60.80073 36870 ft 474 kts 201°
2026-05-06 16:06 -41.18366 -60.82595 36871 ft 474 kts 201°
2026-05-06 16:06 -41.24692 -60.85124 36870 ft 474 kts 201°
2026-05-06 16:07 -41.31012 -60.87655 36869 ft 474 kts 201°
2026-05-06 16:07 -41.37305 -60.90176 36870 ft 474 kts 201°
2026-05-06 16:08 -41.43626 -60.92718 36870 ft 475 kts 201°
2026-05-06 16:08 -41.49949 -60.95264 36870 ft 474 kts 201°
2026-05-06 16:09 -41.56284 -60.97822 36870 ft 475 kts 201°
2026-05-06 16:09 -41.62619 -61.00384 36870 ft 474 kts 201°
2026-05-06 16:10 -41.68904 -61.02930 36871 ft 474 kts 201°
2026-05-06 16:10 -41.75225 -61.05495 36868 ft 475 kts 201°
2026-05-06 16:11 -41.81551 -61.08071 36872 ft 474 kts 201°
2026-05-06 16:11 -41.87867 -61.10645 36870 ft 474 kts 201°
2026-05-06 16:12 -41.94190 -61.13229 36871 ft 474 kts 201°
2026-05-06 16:12 -42.00505 -61.15814 36872 ft 474 kts 201°
2026-05-06 16:13 -42.06776 -61.18390 36870 ft 474 kts 201°
2026-05-06 16:13 -42.13088 -61.20984 36871 ft 473 kts 201°
2026-05-06 16:14 -42.19396 -61.23582 36856 ft 474 kts 201°
2026-05-06 16:14 -42.25715 -61.26191 36837 ft 475 kts 201°
2026-05-06 16:15 -42.31994 -61.28788 36832 ft 474 kts 201°
2026-05-06 16:15 -42.38319 -61.31409 36830 ft 474 kts 201°
2026-05-06 16:16 -42.44624 -61.34029 36830 ft 474 kts 201°
2026-05-06 16:16 -42.50928 -61.36654 36834 ft 474 kts 201°
2026-05-06 16:17 -42.57226 -61.39282 36830 ft 473 kts 201°
2026-05-06 16:17 -42.58294 -61.39728 36837 ft 473 kts 201°
2026-05-06 16:19 -42.82603 -61.49927 36834 ft 473 kts 201°
2026-05-06 16:19 -42.88896 -61.52579 36842 ft 473 kts 201°
2026-05-06 16:20 -42.95149 -61.55223 36844 ft 472 kts 201°
2026-05-06 16:20 -43.01436 -61.57887 36841 ft 473 kts 201°
2026-05-06 16:21 -43.07712 -61.60550 36841 ft 472 kts 201°
2026-05-06 16:21 -43.14000 -61.63222 36845 ft 472 kts 201°
2026-05-06 16:22 -43.20281 -61.65900 36842 ft 472 kts 201°
2026-05-06 16:22 -43.26526 -61.68567 36845 ft 472 kts 201°
2026-05-06 16:23 -43.32794 -61.71250 36850 ft 472 kts 201°
2026-05-06 16:23 -43.39066 -61.73942 36860 ft 471 kts 201°
2026-05-06 16:24 -43.45329 -61.76637 36862 ft 472 kts 201°
2026-05-06 16:24 -43.51595 -61.79335 36868 ft 472 kts 201°
2026-05-06 16:25 -43.57838 -61.82030 36869 ft 472 kts 201°
2026-05-06 16:25 -43.64109 -61.84745 36869 ft 472 kts 201°
2026-05-06 16:26 -43.70387 -61.87467 36869 ft 472 kts 201°
2026-05-06 16:26 -43.76615 -61.90177 36874 ft 472 kts 201°
2026-05-06 16:27 -43.82877 -61.92904 36884 ft 472 kts 201°
2026-05-06 16:27 -43.89144 -61.95641 36878 ft 472 kts 201°
2026-05-06 16:28 -43.95414 -61.98387 36879 ft 471 kts 201°
2026-05-06 16:28 -44.01631 -62.01111 36884 ft 471 kts 201°
2026-05-06 16:29 -44.07926 -62.03877 36891 ft 471 kts 201°
2026-05-06 16:29 -44.14141 -62.06615 36901 ft 471 kts 201°
2026-05-06 16:30 -44.19379 -62.08926 36898 ft 471 kts 201°
2026-05-06 16:30 -44.26663 -62.12152 36892 ft 471 kts 201°
2026-05-06 16:31 -44.32880 -62.14907 36900 ft 471 kts 201°
2026-05-06 16:31 -44.39139 -62.17689 36904 ft 471 kts 201°
2026-05-06 16:32 -44.45363 -62.20461 36900 ft 472 kts 201°
2026-05-06 16:32 -44.51623 -62.23256 36894 ft 472 kts 201°
2026-05-06 16:33 -44.57889 -62.26061 36904 ft 471 kts 201°
2026-05-06 16:34 -44.67228 -62.30250 36897 ft 471 kts 201°
2026-05-06 16:34 -44.73463 -62.33054 36902 ft 470 kts 201°
2026-05-06 16:35 -44.79697 -62.35869 36908 ft 470 kts 201°
2026-05-06 16:35 -44.85928 -62.38688 36914 ft 469 kts 201°
2026-05-06 16:36 -44.92153 -62.41506 36914 ft 470 kts 201°
2026-05-06 16:36 -44.98371 -62.44329 36908 ft 469 kts 201°
2026-05-06 16:37 -45.03532 -62.46678 36902 ft 469 kts 201°
2026-05-06 16:37 -45.10756 -62.49973 36901 ft 469 kts 201°
2026-05-06 16:38 -45.15968 -62.52356 36915 ft 469 kts 201°
2026-05-06 16:38 -45.22134 -62.55180 36920 ft 469 kts 201°
2026-05-06 16:39 -45.28343 -62.58033 36917 ft 468 kts 201°
2026-05-06 16:39 -45.34551 -62.60889 36907 ft 468 kts 201°
2026-05-06 16:40 -45.40761 -62.63753 36920 ft 468 kts 201°
2026-05-06 16:40 -45.46953 -62.66619 36921 ft 468 kts 201°
2026-05-06 16:41 -45.53102 -62.69470 36919 ft 468 kts 201°
2026-05-06 16:41 -45.59303 -62.72350 36909 ft 467 kts 201°
2026-05-06 16:42 -45.65494 -62.75233 36927 ft 467 kts 201°
2026-05-06 16:42 -45.71634 -62.78097 36933 ft 467 kts 201°
2026-05-06 16:43 -45.77820 -62.80990 36909 ft 467 kts 201°
2026-05-06 16:43 -45.84008 -62.83895 36929 ft 467 kts 201°
2026-05-06 16:44 -45.90189 -62.86800 36928 ft 467 kts 202°
2026-05-06 16:44 -45.96368 -62.89711 36903 ft 468 kts 202°
2026-05-06 16:45 -46.02515 -62.92614 36907 ft 468 kts 202°
2026-05-06 16:45 -46.08704 -62.95543 36911 ft 468 kts 202°
2026-05-06 16:46 -46.14889 -62.98478 36898 ft 467 kts 202°
2026-05-06 16:46 -46.21060 -63.01414 36906 ft 467 kts 202°
2026-05-06 16:47 -46.27235 -63.04355 36909 ft 467 kts 202°
2026-05-06 16:47 -46.33351 -63.07281 36914 ft 466 kts 202°
2026-05-06 16:48 -46.39510 -63.10232 36913 ft 466 kts 202°
2026-05-06 16:48 -46.45668 -63.13187 36899 ft 466 kts 202°
2026-05-06 16:49 -46.51831 -63.16153 36914 ft 466 kts 202°
2026-05-06 16:49 -46.57947 -63.19104 36917 ft 466 kts 202°
2026-05-06 16:50 -46.64097 -63.22078 36918 ft 466 kts 202°
2026-05-06 16:50 -46.70268 -63.25067 36916 ft 466 kts 202°
2026-05-06 16:51 -46.76424 -63.28060 36932 ft 466 kts 202°
2026-05-06 16:51 -46.82534 -63.31038 36927 ft 465 kts 202°
2026-05-06 16:52 -46.88691 -63.34047 36929 ft 466 kts 202°
2026-05-06 16:52 -46.94818 -63.37043 36929 ft 466 kts 202°
2026-05-06 16:53 -47.00970 -63.40060 36929 ft 466 kts 202°
2026-05-06 16:53 -47.07120 -63.43083 36937 ft 465 kts 202°
2026-05-06 16:54 -47.13263 -63.46112 36976 ft 465 kts 202°
2026-05-06 16:54 -47.19352 -63.49123 36984 ft 465 kts 202°
2026-05-06 16:55 -47.25498 -63.52169 36982 ft 465 kts 202°
2026-05-06 16:55 -47.31640 -63.55219 36982 ft 465 kts 202°
2026-05-06 16:56 -47.37756 -63.58263 36981 ft 465 kts 202°
2026-05-06 16:56 -47.43895 -63.61328 36982 ft 465 kts 202°
2026-05-06 16:57 -47.50031 -63.64397 36981 ft 465 kts 202°
2026-05-06 16:57 -47.56153 -63.67467 36987 ft 464 kts 202°
2026-05-06 16:58 -47.62242 -63.70528 36988 ft 464 kts 202°
2026-05-06 16:58 -47.68362 -63.73613 36991 ft 464 kts 202°
2026-05-06 16:59 -47.74481 -63.76705 36991 ft 464 kts 202°
2026-05-06 16:59 -47.80599 -63.79805 36991 ft 464 kts 202°
2026-05-06 17:00 -47.86677 -63.82892 36991 ft 464 kts 202°
2026-05-06 17:00 -47.92787 -63.86004 36989 ft 464 kts 202°
2026-05-06 17:01 -47.98896 -63.89118 36990 ft 463 kts 202°
2026-05-06 17:01 -48.05005 -63.92246 36992 ft 464 kts 202°
2026-05-06 17:02 -48.11124 -63.95385 36991 ft 464 kts 202°
2026-05-06 17:02 -48.17190 -63.98503 37000 ft 464 kts 202°
2026-05-06 17:03 -48.23309 -64.01660 37000 ft 464 kts 202°
2026-05-06 17:03 -48.29419 -64.04815 37001 ft 464 kts 202°
2026-05-06 17:04 -48.35534 -64.07986 37000 ft 464 kts 202°
2026-05-06 17:04 -48.41609 -64.11143 37000 ft 464 kts 202°
2026-05-06 17:05 -48.47723 -64.14326 37000 ft 464 kts 202°
2026-05-06 17:05 -48.53833 -64.17515 37001 ft 464 kts 202°
2026-05-06 17:06 -48.59941 -64.20714 37000 ft 464 kts 202°
2026-05-06 17:06 -48.66047 -64.23920 37000 ft 464 kts 202°
2026-05-06 17:07 -48.72111 -64.27111 37007 ft 464 kts 202°
2026-05-06 17:07 -48.78219 -64.30332 37010 ft 464 kts 202°
2026-05-06 17:08 -48.84326 -64.33562 37009 ft 463 kts 202°
2026-05-06 17:08 -48.90381 -64.36772 37009 ft 463 kts 202°
2026-05-06 17:09 -48.96478 -64.40013 37010 ft 464 kts 202°
2026-05-06 17:09 -49.02582 -64.43269 37009 ft 464 kts 202°
2026-05-06 17:10 -49.08684 -64.46531 37010 ft 464 kts 202°
2026-05-06 17:10 -49.14748 -64.49783 37010 ft 464 kts 202°
2026-05-06 17:11 -49.20883 -64.53078 37009 ft 465 kts 202°
2026-05-06 17:11 -49.26952 -64.56346 37008 ft 464 kts 202°
2026-05-06 17:12 -49.33046 -64.59637 37018 ft 464 kts 202°
2026-05-06 17:12 -49.39129 -64.62930 37019 ft 464 kts 202°
2026-05-06 17:13 -49.45203 -64.66227 37019 ft 463 kts 203°
2026-05-06 17:13 -49.51248 -64.69520 37019 ft 463 kts 203°
2026-05-06 17:14 -49.57344 -64.72845 37018 ft 463 kts 203°
2026-05-06 17:14 -49.63426 -64.76174 36997 ft 464 kts 203°
2026-05-06 17:15 -49.69514 -64.79515 37000 ft 464 kts 203°
2026-05-06 17:15 -49.75574 -64.82849 37001 ft 464 kts 203°
2026-05-06 17:16 -49.81660 -64.86207 37000 ft 464 kts 203°
2026-05-06 17:16 -49.87739 -64.89570 37000 ft 464 kts 203°
2026-05-06 17:17 -49.93789 -64.92924 36999 ft 464 kts 203°
2026-05-06 17:17 -49.99873 -64.96307 37001 ft 464 kts 203°
2026-05-06 17:18 -50.05973 -64.99709 37001 ft 464 kts 203°
2026-05-06 17:18 -50.12018 -65.03087 37000 ft 464 kts 203°
2026-05-06 17:19 -50.18104 -65.06498 37000 ft 464 kts 203°
2026-05-06 17:19 -50.24194 -65.09923 37000 ft 464 kts 203°
2026-05-06 17:20 -50.30284 -65.13359 36999 ft 464 kts 203°
2026-05-06 17:20 -50.36323 -65.16771 37001 ft 464 kts 203°
2026-05-06 17:21 -50.42416 -65.20220 37011 ft 465 kts 203°
2026-05-06 17:21 -50.48502 -65.23678 37019 ft 465 kts 203°
2026-05-06 17:22 -50.54555 -65.27129 37019 ft 465 kts 203°
2026-05-06 17:22 -50.60644 -65.30610 37014 ft 465 kts 203°
2026-05-06 17:23 -50.66737 -65.34099 37009 ft 465 kts 203°
2026-05-06 17:23 -50.72826 -65.37599 37008 ft 465 kts 203°
2026-05-06 17:24 -50.78875 -65.41082 37010 ft 465 kts 203°
2026-05-06 17:24 -50.84963 -65.44601 37009 ft 465 kts 203°
2026-05-06 17:25 -50.90027 -65.47535 37010 ft 465 kts 203°
2026-05-06 17:25 -50.97101 -65.51642 37010 ft 466 kts 203°
2026-05-06 17:26 -51.02165 -65.54593 37009 ft 466 kts 203°
2026-05-06 17:26 -51.08252 -65.58148 37009 ft 466 kts 203°
2026-05-06 17:27 -51.14338 -65.61714 37009 ft 466 kts 203°
2026-05-06 17:27 -51.20424 -65.65285 37008 ft 466 kts 203°
2026-05-06 17:28 -51.26509 -65.68867 37010 ft 465 kts 203°
2026-05-06 17:28 -51.32591 -65.72460 37009 ft 465 kts 203°
2026-05-06 17:29 -51.38632 -65.76040 37010 ft 466 kts 203°
2026-05-06 17:29 -51.44715 -65.79651 37009 ft 466 kts 203°
2026-05-06 17:30 -51.50798 -65.83275 37010 ft 466 kts 203°
2026-05-06 17:30 -51.56849 -65.86889 37010 ft 466 kts 203°
2026-05-06 17:31 -51.62937 -65.90537 37009 ft 466 kts 203°
2026-05-06 17:31 -51.69027 -65.94196 37010 ft 467 kts 203°
2026-05-06 17:32 -51.75087 -65.97848 36996 ft 467 kts 203°
2026-05-06 17:32 -51.81193 -66.01495 36990 ft 468 kts 202°
2026-05-06 17:33 -51.87351 -66.04918 36991 ft 468 kts 201°
2026-05-06 17:33 -51.93518 -66.08295 36991 ft 467 kts 201°
2026-05-06 17:34 -51.99639 -66.11688 36989 ft 467 kts 201°
2026-05-06 17:34 -52.05784 -66.15129 36992 ft 467 kts 202°
2026-05-06 17:35 -52.11933 -66.18589 36991 ft 467 kts 202°
2026-05-06 17:35 -52.18080 -66.22054 36991 ft 467 kts 202°
2026-05-06 17:36 -52.27258 -66.27244 36992 ft 467 kts 202°
2026-05-06 17:36 -52.33393 -66.30728 36990 ft 467 kts 202°
2026-05-06 17:37 -52.39538 -66.34226 36990 ft 467 kts 202°
2026-05-06 17:37 -52.45683 -66.37735 36991 ft 467 kts 202°
2026-05-06 17:38 -52.51795 -66.41237 36991 ft 467 kts 202°
2026-05-06 17:38 -52.57945 -66.44769 36992 ft 467 kts 202°
2026-05-06 17:39 -52.64083 -66.48307 36990 ft 468 kts 202°
2026-05-06 17:39 -52.70232 -66.51859 36992 ft 468 kts 202°
2026-05-06 17:40 -52.76347 -66.55405 36992 ft 468 kts 202°
2026-05-06 17:40 -52.82466 -66.58961 36990 ft 468 kts 202°
2026-05-06 17:41 -52.88628 -66.62552 36991 ft 468 kts 202°
2026-05-06 17:41 -52.94759 -66.66149 36991 ft 468 kts 202°
2026-05-06 17:42 -53.00829 -66.69902 36991 ft 467 kts 203°
2026-05-06 17:42 -53.06923 -66.73754 36991 ft 468 kts 203°
2026-05-06 17:43 -53.12978 -66.77578 36991 ft 467 kts 203°
2026-05-06 17:43 -53.19077 -66.81423 36991 ft 468 kts 203°
2026-05-06 17:44 -53.25166 -66.85268 36991 ft 468 kts 203°
2026-05-06 17:44 -53.31259 -66.89124 36991 ft 468 kts 203°
2026-05-06 17:45 -53.34312 -66.91062 36794 ft 471 kts 203°
2026-05-06 17:45 -53.37393 -66.93023 36178 ft 475 kts 203°
2026-05-06 17:45 -53.40434 -66.94960 35478 ft 474 kts 203°
2026-05-06 17:45 -53.43526 -66.96930 34648 ft 475 kts 203°
2026-05-06 17:46 -53.46622 -66.98907 33788 ft 475 kts 203°
2026-05-06 17:46 -53.49710 -67.00883 33169 ft 471 kts 203°
2026-05-06 17:46 -53.52757 -67.02833 32557 ft 466 kts 203°
2026-05-06 17:46 -53.55774 -67.04767 31977 ft 462 kts 203°
2026-05-06 17:47 -53.58760 -67.06686 31416 ft 457 kts 204°
2026-05-06 17:47 -53.61717 -67.08590 30859 ft 453 kts 204°
2026-05-06 17:47 -53.64648 -67.10480 30310 ft 449 kts 204°
2026-05-06 17:47 -53.67557 -67.12358 29764 ft 445 kts 204°
2026-05-06 17:48 -53.70402 -67.14196 29199 ft 441 kts 204°
2026-05-06 17:48 -53.73254 -67.16041 28659 ft 437 kts 204°
2026-05-06 17:48 -53.76092 -67.17881 28112 ft 433 kts 204°
2026-05-06 17:48 -53.78901 -67.19706 27571 ft 430 kts 204°
2026-05-06 17:49 -53.81688 -67.21518 27036 ft 426 kts 204°
2026-05-06 17:49 -53.84452 -67.23319 26505 ft 423 kts 203°
2026-05-06 17:49 -53.87152 -67.25080 25988 ft 420 kts 203°
2026-05-06 17:49 -53.89873 -67.26858 25468 ft 417 kts 203°
2026-05-06 17:50 -53.92561 -67.28616 24958 ft 413 kts 203°
2026-05-06 17:50 -53.95234 -67.30368 24450 ft 411 kts 203°
2026-05-06 17:50 -53.97907 -67.32122 23945 ft 407 kts 203°
2026-05-06 17:50 -54.00527 -67.33842 23612 ft 400 kts 203°
2026-05-06 17:51 -54.03108 -67.35540 23152 ft 396 kts 203°
2026-05-06 17:51 -54.05676 -67.37231 22671 ft 394 kts 203°
2026-05-06 17:51 -54.08197 -67.38891 22182 ft 392 kts 203°
2026-05-06 17:51 -54.10731 -67.40565 21693 ft 390 kts 203°
2026-05-06 17:52 -54.13252 -67.42232 21213 ft 388 kts 203°
2026-05-06 17:52 -54.15758 -67.43891 20730 ft 386 kts 203°
2026-05-06 17:52 -54.18264 -67.45552 20240 ft 385 kts 203°
2026-05-06 17:52 -54.20752 -67.47203 19747 ft 383 kts 203°
2026-05-06 17:53 -54.23239 -67.48856 19270 ft 381 kts 203°
2026-05-06 17:53 -54.25707 -67.50499 18784 ft 380 kts 203°
2026-05-06 17:53 -54.28167 -67.52137 18299 ft 379 kts 203°
2026-05-06 17:53 -54.30620 -67.53774 17808 ft 376 kts 203°
2026-05-06 17:54 -54.33060 -67.55402 17328 ft 375 kts 203°
2026-05-06 17:54 -54.35458 -67.57003 16846 ft 373 kts 203°
2026-05-06 17:54 -54.37871 -67.58620 16379 ft 371 kts 203°
2026-05-06 17:54 -54.40271 -67.60232 15888 ft 370 kts 203°
2026-05-06 17:55 -54.42661 -67.61837 15422 ft 368 kts 203°
2026-05-06 17:55 -54.45051 -67.63444 14943 ft 367 kts 203°
2026-05-06 17:55 -54.47401 -67.65025 14471 ft 365 kts 203°
2026-05-06 17:55 -54.49772 -67.66495 13975 ft 360 kts 196°
2026-05-06 17:56 -54.52260 -67.66789 13372 ft 359 kts 176°
2026-05-06 17:56 -54.54758 -67.66358 12776 ft 362 kts 176°
2026-05-06 17:56 -54.57270 -67.66001 12249 ft 362 kts 177°
2026-05-06 17:56 -54.59741 -67.65702 11605 ft 346 kts 178°
2026-05-06 17:57 -54.62074 -67.65440 10983 ft 327 kts 178°
2026-05-06 17:57 -54.64285 -67.65195 10430 ft 310 kts 178°
2026-05-06 17:57 -54.66370 -67.64965 10098 ft 288 kts 178°
2026-05-06 17:57 -54.68322 -67.64746 9652 ft 274 kts 178°
2026-05-06 17:58 -54.70196 -67.64536 9324 ft 270 kts 178°
2026-05-06 17:58 -54.72063 -67.64328 8990 ft 274 kts 178°
2026-05-06 17:58 -54.73970 -67.64113 8667 ft 273 kts 178°
2026-05-06 17:58 -54.75857 -67.63908 8341 ft 271 kts 178°
2026-05-06 17:59 -54.77734 -67.63705 8005 ft 268 kts 179°
2026-05-06 17:59 -54.79520 -67.64120 7654 ft 255 kts 206°
2026-05-06 17:59 -54.80918 -67.65871 7381 ft 245 kts 228°
2026-05-06 17:59 -54.81753 -67.68341 7074 ft 236 kts 256°
2026-05-06 18:00 -54.81945 -67.71107 6851 ft 227 kts 266°
2026-05-06 18:00 -54.82061 -67.73822 6549 ft 223 kts 266°
2026-05-06 18:00 -54.82172 -67.76461 6282 ft 216 kts 266°
2026-05-06 18:00 -54.82279 -67.79023 6034 ft 212 kts 266°
2026-05-06 18:01 -54.82383 -67.81502 5792 ft 205 kts 265°
2026-05-06 18:01 -54.82516 -67.83925 5548 ft 199 kts 264°
2026-05-06 18:01 -54.82640 -67.86376 5312 ft 205 kts 265°
2026-05-06 18:01 -54.82744 -67.88794 5074 ft 195 kts 266°
2026-05-06 18:02 -54.82835 -67.91043 4838 ft 180 kts 266°
2026-05-06 18:02 -54.82922 -67.93241 4578 ft 186 kts 266°
2026-05-06 18:02 -54.83009 -67.95494 4257 ft 187 kts 266°
2026-05-06 18:02 -54.83097 -67.97747 3969 ft 187 kts 266°
2026-05-06 18:03 -54.83180 -67.99956 3682 ft 185 kts 266°
2026-05-06 18:03 -54.83266 -68.02184 3401 ft 186 kts 265°
2026-05-06 18:03 -54.83355 -68.04429 3107 ft 186 kts 265°
2026-05-06 18:03 -54.83441 -68.06617 2839 ft 176 kts 265°
2026-05-06 18:04 -54.83521 -68.08681 2530 ft 166 kts 265°
2026-05-06 18:04 -54.83593 -68.10621 2309 ft 161 kts 265°
2026-05-06 18:04 -54.83672 -68.12571 2089 ft 162 kts 265°
2026-05-06 18:04 -54.83748 -68.14538 1803 ft 162 kts 265°
2026-05-06 18:05 -54.83821 -68.16432 1550 ft 154 kts 266°
2026-05-06 18:05 -54.83890 -68.18216 1337 ft 144 kts 266°
2026-05-06 18:05 -54.83957 -68.19949 1116 ft 144 kts 266°
2026-05-06 18:05 -54.84024 -68.21671 886 ft 142 kts 266°
2026-05-06 18:06 -54.84090 -68.23380 668 ft 141 kts 266°
2026-05-06 18:06 -54.84156 -68.25083 450 ft 141 kts 266°
2026-05-06 18:06 -54.84221 -68.26780 226 ft 141 kts 267°
2026-05-06 18:06 -54.84288 -68.28462 94 ft 134 kts 265°
2026-05-06 18:07 -54.84342 -68.29863 88 ft 88 kts 266°
2026-05-06 18:07 -54.84373 -68.30646 89 ft 36 kts 266°
2026-05-06 18:07 -54.84379 -68.30822 90 ft 6 kts 266°
2026-05-06 18:07 -54.84382 -68.30894 89 ft 6 kts 266°
2026-05-06 18:08 -54.84369 -68.30957 91 ft 6 kts 333°
2026-05-06 18:08 -54.84323 -68.30960 88 ft 8 kts 358°
2026-05-06 18:08 -54.84261 -68.30965 87 ft 10 kts 356°
2026-05-06 18:08 -54.84230 -68.30969 89 ft 3 kts 355°
2026-05-06 18:09 -54.84205 -68.30973 87 ft 4 kts 355°
2026-05-06 18:09 -54.84173 -68.30978 87 ft 5 kts 355°
2026-05-06 18:09 -54.84133 -68.30985 91 ft 6 kts 355°
2026-05-06 18:09 -54.84094 -68.31016 87 ft 7 kts 295°
2026-05-06 18:10 -54.84093 -68.31102 88 ft 8 kts 270°
2026-05-06 18:10 -54.84095 -68.31193 87 ft 7 kts 267°
2026-05-06 18:10 -54.84096 -68.31245 91 ft 3 kts 267°
2026-05-06 18:10 -54.84081 -68.31271 87 ft 4 kts 346°
2026-05-06 18:11 -54.84053 -68.31266 87 ft 4 kts 14°
2026-05-06 18:11 -54.84041 -68.31259 87 ft 3 kts 18°
2026-05-06 18:11 -54.84037 -68.31256 91 ft 0 kts 19°
2026-05-06 18:11 -54.84036 -68.31256 91 ft 0 kts 19°